GREAT EAST LAKE DAM: From 11/23/2021 00:00 to 01/25/2022 00:00

Date LAKE ELEVATION [FT] PRECIPITATION INCREMENT [IN] PRECIPITATION TOTAL [IN] AIR TEMPERATURE [F] RELATIVE HUMIDITY [%]
01/22/2022 22:00 571.47 0.00 -- 2.1 100.0
01/22/2022 21:00 571.49 0.00 -- 4.0 100.0
01/22/2022 20:00 571.46 0.00 -- 3.8 100.0
01/22/2022 19:00 571.47 0.00 -- 5.7 100.0
01/22/2022 18:00 571.47 0.00 -- 7.5 100.0
01/22/2022 17:00 571.47 0.00 -- 10.5 100.0
01/22/2022 16:00 571.48 0.00 -- 14.9 100.0
01/22/2022 15:00 571.47 0.00 -- 16.5 100.0
01/22/2022 14:00 571.49 0.00 -- 15.7 100.0
01/22/2022 13:00 571.49 0.00 -- 13.5 100.0
01/22/2022 12:00 571.47 0.00 -- 11.1 100.0
01/22/2022 11:00 571.47 0.00 -- 7.5 100.0
01/22/2022 10:00 571.06 0.00 -- 2.1 100.0
01/22/2022 09:00 571.08 0.00 -- -6.6 100.0
01/22/2022 08:00 571.40 0.00 -- -8.4 100.0
01/22/2022 07:00 571.42 0.00 -- -8.5 100.0
01/22/2022 06:00 571.45 0.00 -- -8.6 100.0
01/22/2022 05:00 571.47 0.00 -- -8.7 100.0
01/22/2022 04:00 571.49 0.00 -- -8.7 100.0
01/22/2022 03:00 571.48 0.00 -- -7.9 100.0
01/22/2022 02:00 571.50 0.00 -- -7.0 100.0
01/22/2022 01:00 571.50 0.00 -- -6.0 100.0
01/22/2022 00:00 571.50 0.00 -- -4.9 100.0
01/21/2022 23:00 571.49 0.00 -- -3.4 100.0
01/21/2022 22:00 571.50 0.00 -- -1.9 100.0
01/21/2022 21:00 571.49 0.00 -- -0.5 100.0
01/21/2022 20:00 571.49 0.00 -- 2.0 100.0
01/21/2022 19:00 571.48 0.00 -- 4.1 100.0
01/21/2022 18:00 571.49 0.00 -- 7.3 100.0
01/21/2022 17:00 571.49 0.00 -- 9.9 100.0
01/21/2022 16:00 571.49 0.00 -- 13.3 100.0
01/21/2022 15:00 571.48 0.00 -- 14.9 100.0
01/21/2022 14:00 571.49 0.00 -- 14.7 100.0
01/21/2022 13:00 571.48 0.00 -- 13.3 100.0
01/21/2022 12:00 571.49 0.00 -- 11.1 100.0
01/21/2022 11:00 571.49 0.00 -- 8.2 100.0
01/21/2022 10:00 571.49 0.00 -- 5.0 100.0
01/21/2022 09:00 571.51 0.00 -- -0.4 100.0
01/21/2022 08:00 571.51 0.00 -- -5.5 100.0
01/21/2022 07:00 571.50 0.00 -- -2.9 100.0
01/21/2022 06:00 571.50 0.00 -- -2.5 100.0
01/21/2022 05:00 571.49 0.00 -- -1.1 100.0
01/21/2022 04:00 571.49 0.00 -- 1.6 100.0
01/21/2022 03:00 571.49 0.00 -- 3.2 100.0
01/21/2022 02:00 571.49 0.00 -- 4.7 100.0
01/21/2022 01:00 571.50 0.00 -- 6.0 100.0
01/21/2022 00:00 571.50 0.00 0.00 7.2 100.0
01/20/2022 23:00 571.49 0.00 -- 9.0 100.0
01/20/2022 22:00 571.50 0.00 -- 10.3 100.0
01/20/2022 21:00 571.49 0.00 -- 11.7 100.0
01/20/2022 20:00 571.51 0.00 -- 13.6 100.0
01/20/2022 19:00 571.48 0.00 -- 15.5 100.0
01/20/2022 18:00 571.51 0.00 -- 17.2 100.0
01/20/2022 17:00 571.50 0.00 -- 19.5 100.0
01/20/2022 16:00 571.50 0.00 -- 21.9 100.0
01/20/2022 15:00 571.50 0.00 -- 23.1 100.0
01/20/2022 14:00 571.48 0.00 -- 23.3 100.0
01/20/2022 13:00 571.51 0.00 -- 24.3 100.0
01/20/2022 12:00 571.51 0.00 -- 24.3 100.0
01/20/2022 11:00 571.51 0.00 -- 26.0 100.0
01/20/2022 10:00 571.52 0.00 -- 29.1 88.0
01/20/2022 09:00 571.50 0.00 -- 31.3 70.0
01/20/2022 08:00 571.53 0.00 -- 33.4 68.0
01/20/2022 07:00 571.51 0.00 -- 33.6 65.0
01/20/2022 06:00 571.50 0.00 -- 35.0 62.0
01/20/2022 05:00 571.51 0.00 -- 33.0 63.0
01/20/2022 04:00 571.51 0.00 -- 33.8 62.0
01/20/2022 03:00 571.50 0.00 -- 36.5 62.0
01/20/2022 02:00 571.51 0.00 -- 36.1 74.0
01/20/2022 01:00 571.53 0.00 -- 33.7 86.0
01/20/2022 00:00 571.51 0.00 0.00 33.5 93.0
01/19/2022 23:00 571.49 0.00 -- 34.1 100.0
01/19/2022 22:00 571.52 0.00 -- 32.6 100.0
01/19/2022 21:00 571.50 0.00 -- 26.6 100.0
01/19/2022 20:00 571.52 0.00 -- 26.7 100.0
01/19/2022 19:00 571.53 0.00 -- 28.3 100.0
01/19/2022 18:00 571.52 0.00 -- 28.8 100.0
01/19/2022 17:00 571.51 0.00 -- 29.1 100.0
01/19/2022 16:00 571.50 0.00 -- 29.7 100.0
01/19/2022 15:00 571.52 0.00 -- 31.6 100.0
01/19/2022 14:00 571.52 0.00 -- 31.1 100.0
01/19/2022 13:00 571.49 0.00 -- 28.7 100.0
01/19/2022 12:00 571.54 0.00 -- 22.2 100.0
01/19/2022 11:00 571.54 0.00 -- 16.9 100.0
01/19/2022 10:00 571.50 0.00 -- 14.3 100.0
01/19/2022 09:00 571.53 0.00 -- 12.9 100.0
01/19/2022 08:00 571.53 0.00 -- 10.0 100.0
01/19/2022 07:00 571.54 0.00 -- 9.2 100.0
01/19/2022 06:00 571.49 0.00 -- 8.7 100.0
01/19/2022 05:00 571.52 0.00 -- 7.5 100.0
01/19/2022 04:00 571.51 0.00 -- 7.2 100.0
01/19/2022 03:00 571.55 0.00 -- 5.6 100.0
01/19/2022 02:00 571.52 0.00 -- 6.6 100.0
01/19/2022 01:00 571.54 0.00 -- 6.6 100.0
01/19/2022 00:00 571.53 0.00 0.00 6.6 100.0
01/18/2022 23:00 571.50 0.00 -- 7.0 100.0
01/18/2022 22:00 571.56 0.00 -- 7.9 100.0
01/18/2022 21:00 571.53 0.00 -- 8.8 100.0
01/18/2022 20:00 571.51 0.00 -- 9.8 100.0
01/18/2022 19:00 571.51 0.00 -- 10.9 100.0
01/18/2022 18:00 571.54 0.00 -- 12.2 100.0
01/18/2022 17:00 571.53 0.00 -- 14.1 100.0
01/18/2022 16:00 571.51 0.00 -- 16.4 100.0
01/18/2022 15:00 571.50 0.00 -- 18.1 100.0
01/18/2022 14:00 571.51 0.00 -- 19.9 100.0
01/18/2022 13:00 571.52 0.00 -- 19.6 100.0
01/18/2022 12:00 571.54 0.00 -- 19.7 100.0
01/18/2022 11:00 571.53 0.00 -- 19.7 100.0
01/18/2022 10:00 571.52 0.00 -- 18.0 100.0
01/18/2022 09:00 571.55 0.00 -- 19.2 100.0
01/18/2022 08:00 571.54 0.00 -- 19.5 100.0
01/18/2022 07:00 571.54 0.00 -- 20.5 100.0
01/18/2022 06:00 571.56 0.00 -- 21.8 97.0
01/18/2022 05:00 571.53 0.00 -- 22.8 79.0
01/18/2022 04:00 571.51 0.00 -- 24.9 64.0
01/18/2022 03:00 571.55 0.00 -- 27.7 56.0
01/18/2022 02:00 571.54 0.00 -- 29.3 50.0
01/18/2022 01:00 571.54 0.00 -- 29.7 43.0
01/18/2022 00:00 571.53 0.01 0.00 33.6 38.0
01/17/2022 23:00 571.54 0.01 -- 34.5 36.0
01/17/2022 22:00 571.56 0.02 -- 35.0 35.0
01/17/2022 21:00 571.53 0.02 -- 35.1 34.0
01/17/2022 20:00 571.56 0.03 -- 35.4 36.0
01/17/2022 19:00 571.50 0.02 -- 36.6 39.0
01/17/2022 18:00 571.53 0.04 -- 36.5 43.0
01/17/2022 17:00 571.53 0.05 -- 38.1 49.0
01/17/2022 16:00 571.54 0.07 -- 39.9 54.0
01/17/2022 15:00 571.55 0.10 -- 41.9 54.0
01/17/2022 14:00 571.52 0.12 -- 42.2 49.0
01/17/2022 13:00 571.54 0.13 -- 42.5 53.0
01/17/2022 12:00 571.55 0.00 -- 33.2 100.0
01/17/2022 11:00 571.50 0.00 -- 32.3 100.0
01/17/2022 10:00 571.54 0.00 -- 32.2 100.0
01/17/2022 09:00 571.48 0.00 -- 27.8 100.0
01/17/2022 08:00 571.44 0.00 -- 24.5 100.0
01/17/2022 07:00 571.43 0.00 -- 23.3 100.0
01/17/2022 06:00 571.43 0.00 -- 21.3 100.0
01/17/2022 05:00 571.44 0.00 -- 19.5 100.0
01/17/2022 04:00 571.44 0.00 -- 17.7 100.0
01/17/2022 03:00 571.42 0.00 -- 17.3 100.0
01/17/2022 02:00 571.45 0.00 -- 16.3 100.0
01/17/2022 01:00 571.40 0.00 -- 16.1 100.0
01/17/2022 00:00 571.41 0.00 0.62 16.0 100.0
01/16/2022 23:00 571.42 0.00 -- 14.6 100.0
01/16/2022 22:00 571.42 0.00 -- 13.1 100.0
01/16/2022 21:00 571.42 0.00 -- 11.8 100.0
01/16/2022 20:00 571.43 0.00 -- 12.1 100.0
01/16/2022 19:00 571.44 0.00 -- 13.0 100.0
01/16/2022 18:00 571.43 0.00 -- 14.8 100.0
01/16/2022 17:00 571.44 0.00 -- 15.3 100.0
01/16/2022 16:00 571.44 0.00 -- 19.7 100.0
01/16/2022 15:00 571.42 0.00 -- 22.1 100.0
01/16/2022 14:00 571.45 0.00 -- 20.7 100.0
01/16/2022 13:00 571.45 0.00 -- 17.9 100.0
01/16/2022 12:00 571.43 0.00 -- 15.0 100.0
01/16/2022 11:00 571.45 0.00 -- 12.3 100.0
01/16/2022 10:00 571.43 0.00 -- 8.7 100.0
01/16/2022 09:00 571.42 0.00 -- 1.9 100.0
01/16/2022 08:00 571.43 0.00 -- -1.5 100.0
01/16/2022 07:00 571.45 0.00 -- 0.1 100.0
01/16/2022 06:00 571.43 0.00 -- 1.0 100.0
01/16/2022 05:00 571.44 0.00 -- 0.6 100.0
01/16/2022 04:00 571.44 0.00 -- 0.2 100.0
01/16/2022 03:00 571.43 0.00 -- -0.1 100.0
01/16/2022 02:00 571.42 0.00 -- -0.2 100.0
01/16/2022 01:00 571.44 0.00 -- -0.4 100.0
01/16/2022 00:00 571.44 0.00 0.00 -0.9 100.0
01/15/2022 23:00 571.42 0.00 -- -0.9 100.0
01/15/2022 22:00 571.44 0.00 -- -0.4 100.0
01/15/2022 21:00 571.47 0.00 -- -0.1 100.0
01/15/2022 20:00 571.43 0.00 -- 0.5 100.0
01/15/2022 19:00 571.46 0.00 -- 1.3 100.0
01/15/2022 18:00 571.44 0.00 -- 2.6 100.0
01/15/2022 17:00 571.46 0.00 -- 3.8 100.0
01/15/2022 16:00 571.45 0.00 -- 5.1 100.0
01/15/2022 15:00 571.43 0.00 -- 5.8 100.0
01/15/2022 14:00 571.45 0.00 -- 5.1 100.0
01/15/2022 13:00 571.46 0.00 -- 4.4 100.0
01/15/2022 12:00 571.46 0.00 -- 2.2 100.0
01/15/2022 11:00 571.42 0.00 -- 0.0 100.0
01/15/2022 10:00 571.47 0.00 -- -2.6 100.0
01/15/2022 09:00 571.46 0.00 -- -4.1 100.0
01/15/2022 08:00 571.45 0.00 -- -4.1 100.0
01/15/2022 07:00 571.44 0.00 -- -2.6 100.0
01/15/2022 06:00 571.47 0.00 -- -0.8 100.0
01/15/2022 05:00 571.45 0.00 -- 0.6 100.0
01/15/2022 04:00 571.46 0.00 -- 1.9 100.0
01/15/2022 03:00 571.46 0.00 -- 4.2 100.0
01/15/2022 02:00 571.46 0.00 -- 6.4 100.0
01/15/2022 01:00 571.46 0.00 -- 7.9 100.0
01/15/2022 00:00 571.48 0.00 0.00 10.2 100.0
01/14/2022 23:00 571.44 0.00 -- 12.5 100.0
01/14/2022 22:00 571.49 0.00 -- 13.8 100.0
01/14/2022 21:00 571.47 0.00 -- 15.8 100.0
01/14/2022 20:00 571.46 0.00 -- 19.3 100.0
01/14/2022 19:00 571.46 0.00 -- 22.8 100.0
01/14/2022 18:00 571.46 0.00 -- 26.6 100.0
01/14/2022 17:00 571.46 0.00 -- 29.4 100.0
01/14/2022 16:00 571.47 0.00 -- 31.2 96.0
01/14/2022 15:00 571.45 0.01 -- 33.1 87.0
01/14/2022 14:00 571.45 0.02 -- 35.2 81.0
01/14/2022 13:00 571.47 0.01 -- 35.4 80.0
01/14/2022 12:00 571.46 0.01 -- 35.7 84.0
01/14/2022 11:00 571.46 0.00 -- 35.4 94.0
01/14/2022 10:00 571.46 0.00 -- 31.1 100.0
01/14/2022 09:00 571.47 0.00 -- 29.0 100.0
01/14/2022 08:00 571.47 0.00 -- 27.6 100.0
01/14/2022 07:00 571.49 0.00 -- 27.9 100.0
01/14/2022 06:00 571.48 0.00 -- 28.2 100.0
01/14/2022 05:00 571.48 0.00 -- 28.6 100.0
01/14/2022 04:00 571.48 0.00 -- 27.9 100.0
01/14/2022 03:00 571.48 0.00 -- 29.1 100.0
01/14/2022 02:00 571.48 0.00 -- 28.8 100.0
01/14/2022 01:00 571.48 0.00 -- 28.5 100.0
01/14/2022 00:00 571.49 0.00 0.05 28.3 100.0
01/13/2022 23:00 571.48 0.00 -- 28.0 100.0
01/13/2022 22:00 571.49 0.00 -- 27.9 100.0
01/13/2022 21:00 571.48 0.00 -- 27.0 100.0
01/13/2022 20:00 571.48 0.00 -- 27.3 100.0
01/13/2022 19:00 571.48 0.00 -- 28.6 100.0
01/13/2022 18:00 571.48 0.00 -- 29.3 100.0
01/13/2022 17:00 571.49 0.00 -- 29.1 100.0
01/13/2022 16:00 571.48 0.00 -- 29.9 100.0
01/13/2022 15:00 571.49 0.00 -- 30.9 100.0
01/13/2022 14:00 571.48 0.00 -- 29.5 100.0
01/13/2022 13:00 571.48 0.00 -- 28.7 100.0
01/13/2022 12:00 571.49 0.00 -- 27.5 100.0
01/13/2022 11:00 571.47 0.00 -- 26.6 100.0
01/13/2022 10:00 571.49 0.00 -- 25.7 100.0
01/13/2022 09:00 571.49 0.00 -- 23.5 100.0
01/13/2022 08:00 571.50 0.00 -- 22.0 100.0
01/13/2022 07:00 571.49 0.00 -- 21.5 100.0
01/13/2022 06:00 571.50 0.00 -- 21.4 100.0
01/13/2022 05:00 571.51 0.00 -- 19.7 100.0
01/13/2022 04:00 571.49 0.00 -- 18.8 100.0
01/13/2022 03:00 571.50 0.00 -- 19.4 100.0
01/13/2022 02:00 571.49 0.00 -- 19.4 100.0
01/13/2022 01:00 571.50 0.00 -- 18.6 100.0
01/13/2022 00:00 571.49 0.00 0.00 18.0 100.0
01/12/2022 23:00 571.51 0.00 -- 19.2 100.0
01/12/2022 22:00 571.51 0.00 -- 20.3 100.0
01/12/2022 21:00 571.52 0.00 -- 21.9 100.0
01/12/2022 20:00 571.52 0.00 -- 20.1 100.0
01/12/2022 19:00 571.52 0.00 -- 20.3 100.0
01/12/2022 18:00 571.52 0.00 -- 20.2 100.0
01/12/2022 17:00 571.50 0.00 -- 19.2 100.0
01/12/2022 16:00 571.51 0.00 -- 20.0 100.0
01/12/2022 15:00 571.51 0.00 -- 20.4 100.0
01/12/2022 14:00 571.50 0.00 -- 20.1 100.0
01/12/2022 13:00 571.52 0.00 -- 21.5 100.0
01/12/2022 12:00 571.48 0.00 -- 21.6 100.0
01/12/2022 11:00 571.53 0.00 -- 17.6 100.0
01/12/2022 10:00 571.54 0.00 -- 11.5 100.0
01/12/2022 09:00 571.49 0.00 -- 8.3 100.0
01/12/2022 08:00 571.52 0.00 -- 2.7 100.0
01/12/2022 07:00 571.52 0.00 -- 2.2 100.0
01/12/2022 06:00 571.53 0.00 -- 1.9 100.0
01/12/2022 05:00 571.54 0.00 -- -1.1 100.0
01/12/2022 04:00 571.52 0.00 -- 1.2 100.0
01/12/2022 03:00 571.52 0.00 -- -1.0 100.0
01/12/2022 02:00 571.52 0.00 -- -3.1 100.0
01/12/2022 01:00 571.50 0.00 -- -5.3 100.0
01/12/2022 00:00 571.49 0.00 0.00 -4.5 100.0
01/11/2022 23:00 571.54 0.00 -- -3.7 100.0
01/11/2022 22:00 571.53 0.00 -- -1.8 100.0
01/11/2022 21:00 571.55 0.00 -- 0.9 100.0
01/11/2022 20:00 571.52 0.00 -- 0.3 100.0
01/11/2022 19:00 571.54 0.00 -- 2.0 100.0
01/11/2022 18:00 571.52 0.00 -- 2.9 100.0
01/11/2022 17:00 571.54 0.00 -- 3.4 100.0
01/11/2022 16:00 571.54 0.00 -- 4.7 100.0
01/11/2022 15:00 571.53 0.00 -- 5.0 100.0
01/11/2022 14:00 571.55 0.00 -- 4.2 100.0
01/11/2022 13:00 571.53 0.00 -- 3.8 100.0
01/11/2022 12:00 571.50 0.00 -- 3.2 100.0
01/11/2022 11:00 571.52 0.00 -- 1.5 100.0
01/11/2022 10:00 571.56 0.00 -- 0.0 100.0
01/11/2022 09:00 571.57 0.00 -- -1.2 100.0
01/11/2022 08:00 571.52 0.00 -- -1.4 100.0
01/11/2022 07:00 571.55 0.00 -- -0.3 100.0
01/11/2022 06:00 571.53 0.00 -- 1.8 100.0
01/11/2022 05:00 571.54 0.00 -- 3.8 100.0
01/11/2022 04:00 571.54 0.00 -- 5.9 100.0
01/11/2022 03:00 571.54 0.00 -- 7.5 100.0
01/11/2022 02:00 571.54 0.00 -- 9.1 100.0
01/11/2022 01:00 571.54 0.00 -- 10.7 100.0
01/11/2022 00:00 571.56 0.00 0.00 11.9 100.0
01/10/2022 23:00 571.54 0.00 -- 11.8 100.0
01/10/2022 22:00 571.55 0.00 -- 10.5 100.0
01/10/2022 21:00 571.55 0.00 -- 9.9 100.0
01/10/2022 20:00 571.54 0.00 -- 11.8 100.0
01/10/2022 19:00 571.55 0.00 -- 12.6 100.0
01/10/2022 18:00 571.55 0.00 -- 14.2 100.0
01/10/2022 17:00 571.54 0.00 -- 15.7 100.0
01/10/2022 16:00 571.55 0.00 -- 18.9 100.0
01/10/2022 15:00 571.54 0.00 -- 20.2 100.0
01/10/2022 14:00 571.55 0.00 -- 20.8 100.0
01/10/2022 13:00 571.56 0.00 -- 20.9 100.0
01/10/2022 12:00 571.56 0.00 -- 20.6 100.0
01/10/2022 11:00 571.56 0.00 -- 21.1 100.0
01/10/2022 10:00 571.57 0.00 -- 20.9 100.0
01/10/2022 09:00 571.55 0.00 -- 20.4 100.0
01/10/2022 08:00 571.55 0.00 -- 19.4 100.0
01/10/2022 07:00 571.55 0.00 -- 21.0 100.0
01/10/2022 06:00 571.52 0.00 -- 22.6 100.0
01/10/2022 05:00 571.56 0.00 -- 24.2 100.0
01/10/2022 04:00 571.54 0.00 -- 27.0 100.0
01/10/2022 03:00 571.55 0.00 -- 30.1 63.0
01/10/2022 02:00 571.55 0.01 -- 32.3 49.0
01/10/2022 01:00 571.57 0.00 -- 34.6 44.0
01/10/2022 00:00 571.52 0.00 0.01 36.0 47.0
01/09/2022 23:00 571.58 0.00 -- 37.0 45.0
01/09/2022 22:00 571.54 0.00 -- 35.9 48.0
01/09/2022 21:00 571.55 0.00 -- 34.8 48.0
01/09/2022 20:00 571.53 0.00 -- 34.1 50.0
01/09/2022 19:00 571.57 0.00 -- 33.9 53.0
01/09/2022 18:00 571.58 0.00 -- 33.8 57.0
01/09/2022 17:00 571.57 0.00 -- 33.3 62.0
01/09/2022 16:00 571.55 0.00 -- 32.9 70.0
01/09/2022 15:00 571.58 0.00 -- 32.3 84.0
01/09/2022 14:00 571.56 0.00 -- 32.3 94.0
01/09/2022 13:00 571.57 0.00 -- 31.5 100.0
01/09/2022 12:00 571.56 0.00 -- 30.9 100.0
01/09/2022 11:00 571.58 0.00 -- 28.8 100.0
01/09/2022 10:00 571.57 0.00 -- 24.8 100.0
01/09/2022 09:00 571.56 0.00 -- 22.9 100.0
01/09/2022 08:00 571.60 0.00 -- 21.0 100.0
01/09/2022 07:00 571.55 0.00 -- 19.3 100.0
01/09/2022 06:00 571.57 0.00 -- 18.1 100.0
01/09/2022 05:00 571.58 0.00 -- 18.6 100.0
01/09/2022 04:00 571.59 0.00 -- 18.3 100.0
01/09/2022 03:00 571.58 0.00 -- 17.1 100.0
01/09/2022 02:00 571.59 0.00 -- 12.6 100.0
01/09/2022 01:00 571.57 0.00 -- 9.1 100.0
01/09/2022 00:00 571.59 0.00 0.00 4.2 100.0
01/08/2022 23:00 571.60 0.00 -- 3.7 100.0
01/08/2022 22:00 571.59 0.00 -- 4.8 100.0
01/08/2022 21:00 571.60 0.00 -- 6.2 100.0
01/08/2022 20:00 571.57 0.00 -- 8.0 100.0
01/08/2022 19:00 571.54 0.00 -- 9.6 100.0
01/08/2022 18:00 571.59 0.00 -- 12.3 100.0
01/08/2022 17:00 571.60 0.00 -- 14.8 100.0
01/08/2022 16:00 571.57 0.00 -- 18.6 100.0
01/08/2022 15:00 571.57 0.00 -- 22.1 100.0
01/08/2022 14:00 571.61 0.00 -- 21.5 100.0
01/08/2022 13:00 571.58 0.00 -- 20.6 100.0
01/08/2022 12:00 571.59 0.00 -- 18.6 100.0
01/08/2022 11:00 571.61 0.00 -- 16.0 100.0
01/08/2022 10:00 571.61 0.00 -- 13.4 100.0
01/08/2022 09:00 571.58 0.00 -- 11.4 100.0
01/08/2022 08:00 571.60 0.00 -- 10.2 100.0
01/08/2022 07:00 571.61 0.00 -- 10.2 100.0
01/08/2022 06:00 571.58 0.00 -- 11.0 100.0
01/08/2022 05:00 571.61 0.00 -- 11.2 100.0
01/08/2022 04:00 571.59 0.00 -- 12.0 100.0
01/08/2022 03:00 571.62 0.00 -- 13.9 100.0
01/08/2022 02:00 571.58 0.00 -- 15.7 100.0
01/08/2022 01:00 571.60 0.00 -- 16.9 100.0
01/08/2022 00:00 571.62 0.00 0.00 17.5 100.0
01/07/2022 23:00 571.60 0.00 -- 19.1 100.0
01/07/2022 22:00 571.59 0.00 -- 20.5 100.0
01/07/2022 21:00 571.61 0.00 -- 22.2 100.0
01/07/2022 20:00 571.61 0.00 -- 23.0 100.0
01/07/2022 19:00 571.61 0.00 -- 23.9 100.0
01/07/2022 18:00 571.60 0.00 -- 25.2 100.0
01/07/2022 17:00 571.61 0.00 -- 25.6 100.0
01/07/2022 16:00 571.60 0.00 -- 26.4 100.0
01/07/2022 15:00 571.61 0.00 -- 25.9 100.0
01/07/2022 14:00 571.60 0.00 -- 25.4 100.0
01/07/2022 13:00 571.60 0.00 -- 24.7 100.0
01/07/2022 12:00 571.62 0.00 -- 24.3 100.0
01/07/2022 11:00 571.59 0.00 -- 24.2 100.0
01/07/2022 10:00 571.60 0.00 -- 24.2 100.0
01/07/2022 09:00 571.60 0.00 -- 24.4 100.0
01/07/2022 08:00 571.57 0.00 -- 25.1 100.0
01/07/2022 07:00 571.57 0.00 -- 25.6 100.0
01/07/2022 06:00 571.58 0.00 -- 25.4 100.0
01/07/2022 05:00 571.56 0.00 -- 25.3 100.0
01/07/2022 04:00 571.57 0.00 -- 27.3 100.0
01/07/2022 03:00 571.57 0.00 -- 26.9 100.0
01/07/2022 02:00 571.56 0.00 -- 27.2 100.0
01/07/2022 01:00 571.56 0.00 -- 27.4 100.0
01/07/2022 00:00 571.60 0.00 0.00 27.6 100.0
01/06/2022 23:00 571.57 0.00 -- 28.4 100.0
01/06/2022 22:00 571.55 0.00 -- 29.1 99.0
01/06/2022 21:00 571.57 0.00 -- 28.8 96.0
01/06/2022 20:00 571.58 0.00 -- 28.9 91.0
01/06/2022 19:00 571.57 0.00 -- 29.5 89.0
01/06/2022 18:00 571.59 0.00 -- 29.6 86.0
01/06/2022 17:00 571.57 0.00 -- 30.0 82.0
01/06/2022 16:00 571.57 0.00 -- 31.7 84.0
01/06/2022 15:00 571.61 0.00 -- 32.6 80.0
01/06/2022 14:00 571.59 0.00 -- 33.0 68.0
01/06/2022 13:00 571.59 0.00 -- 34.0 60.0
01/06/2022 12:00 571.55 0.00 -- 33.8 61.0
01/06/2022 11:00 571.60 0.00 -- 33.2 61.0
01/06/2022 10:00 571.58 0.00 -- 32.8 59.0
01/06/2022 09:00 571.57 0.00 -- 32.7 61.0
01/06/2022 08:00 571.58 0.00 -- 31.1 58.0
01/06/2022 07:00 571.58 0.00 -- 30.5 56.0
01/06/2022 06:00 571.58 0.00 -- 31.8 57.0
01/06/2022 05:00 571.58 0.00 -- 31.6 55.0
01/06/2022 04:00 571.60 0.00 -- 31.6 53.0
01/06/2022 03:00 571.59 0.00 -- 32.3 52.0
01/06/2022 02:00 571.59 0.00 -- 31.5 52.0
01/06/2022 01:00 571.60 0.00 -- 32.2 51.0
01/06/2022 00:00 571.59 0.00 0.00 32.4 50.0
01/05/2022 23:00 571.59 0.00 -- 32.9 49.0
01/05/2022 22:00 571.57 0.01 -- 35.0 45.0
01/05/2022 21:00 571.59 0.00 -- 36.8 45.0
01/05/2022 20:00 571.60 0.00 -- 37.3 45.0
01/05/2022 19:00 571.60 0.00 -- 35.4 55.0
01/05/2022 18:00 571.60 0.00 -- 34.4 56.0
01/05/2022 17:00 571.60 0.00 -- 34.0 57.0
01/05/2022 16:00 571.61 0.00 -- 34.7 61.0
01/05/2022 15:00 571.58 0.01 -- 34.6 70.0
01/05/2022 14:00 571.60 0.03 -- 33.1 89.0
01/05/2022 13:00 571.61 0.06 -- 32.1 100.0
01/05/2022 12:00 571.56 0.00 -- 31.6 100.0
01/05/2022 11:00 571.58 0.00 -- 28.1 100.0
01/05/2022 10:00 571.59 0.00 -- 26.0 100.0
01/05/2022 09:00 571.60 0.00 -- 23.6 100.0
01/05/2022 08:00 571.58 0.00 -- 22.7 100.0
01/05/2022 07:00 571.59 0.00 -- 19.6 100.0
01/05/2022 06:00 571.60 0.00 -- 16.1 100.0
01/05/2022 05:00 571.60 0.00 -- 17.2 100.0
01/05/2022 04:00 571.58 0.00 -- 19.5 100.0
01/05/2022 03:00 571.59 0.00 -- 20.2 100.0
01/05/2022 02:00 571.58 0.00 -- 19.4 100.0
01/05/2022 01:00 571.61 0.00 -- 18.4 100.0
01/05/2022 00:00 571.58 0.00 0.11 20.1 100.0
01/04/2022 23:00 571.59 0.00 -- 18.1 100.0
01/04/2022 22:00 571.60 0.00 -- 18.3 100.0
01/04/2022 21:00 571.59 0.00 -- 18.4 100.0
01/04/2022 20:00 571.59 0.00 -- 19.6 100.0
01/04/2022 19:00 571.59 0.00 -- 21.4 100.0
01/04/2022 18:00 571.59 0.00 -- 21.9 100.0
01/04/2022 17:00 571.62 0.00 -- 23.3 100.0
01/04/2022 16:00 571.59 0.00 -- 25.2 100.0
01/04/2022 15:00 571.61 0.00 -- 25.9 100.0
01/04/2022 14:00 571.61 0.00 -- 25.3 100.0
01/04/2022 13:00 571.61 0.00 -- 24.0 100.0
01/04/2022 12:00 571.61 0.00 -- 22.0 100.0
01/04/2022 11:00 571.59 0.00 -- 19.5 100.0
01/04/2022 10:00 571.59 0.00 -- 16.4 100.0
01/04/2022 09:00 571.59 0.00 -- 13.2 100.0
01/04/2022 08:00 571.61 0.00 -- 8.9 100.0
01/04/2022 07:00 571.59 0.00 -- 9.0 100.0
01/04/2022 06:00 571.59 0.00 -- 9.6 100.0
01/04/2022 05:00 571.60 0.00 -- 10.0 100.0
01/04/2022 04:00 571.62 0.00 -- 11.0 100.0
01/04/2022 03:00 571.61 0.00 -- 11.9 100.0
01/04/2022 02:00 571.61 0.00 -- 12.9 100.0
01/04/2022 01:00 571.61 0.00 -- 12.8 100.0
01/04/2022 00:00 571.62 0.00 0.00 15.6 100.0
01/03/2022 23:00 571.61 0.00 -- 15.9 100.0
01/03/2022 22:00 571.62 0.00 -- 17.3 100.0
01/03/2022 21:00 571.62 0.00 -- 17.4 100.0
01/03/2022 20:00 571.61 0.00 -- 18.1 100.0
01/03/2022 19:00 571.60 0.00 -- 18.9 100.0
01/03/2022 18:00 571.59 0.00 -- 19.5 100.0
01/03/2022 17:00 571.64 0.00 -- 19.5 100.0
01/03/2022 16:00 571.63 0.00 -- 20.1 100.0
01/03/2022 15:00 571.62 0.00 -- 20.6 100.0
01/03/2022 14:00 571.62 0.00 -- 20.8 100.0
01/03/2022 13:00 571.60 0.00 -- 20.6 100.0
01/03/2022 12:00 571.62 0.00 -- 20.4 100.0
01/03/2022 11:00 571.63 0.00 -- 19.8 100.0
01/03/2022 10:00 571.61 0.00 -- 19.1 100.0
01/03/2022 09:00 571.58 0.00 -- 18.3 100.0
01/03/2022 08:00 571.59 0.00 -- 16.8 100.0
01/03/2022 07:00 571.59 0.00 -- 17.5 100.0
01/03/2022 06:00 571.61 0.00 -- 17.5 100.0
01/03/2022 05:00 571.63 0.00 -- 18.2 100.0
01/03/2022 04:00 571.59 0.00 -- 19.3 100.0
01/03/2022 03:00 571.60 0.00 -- 20.5 100.0
01/03/2022 02:00 571.63 0.00 -- 21.6 99.0
01/03/2022 01:00 571.62 0.00 -- 23.4 83.0
01/03/2022 00:00 571.60 0.00 0.00 24.4 64.0
01/02/2022 23:00 571.61 0.00 -- 26.1 55.0
01/02/2022 22:00 571.61 0.00 -- 28.0 52.0
01/02/2022 21:00 571.61 0.00 -- 29.8 51.0
01/02/2022 20:00 571.60 0.00 -- 31.6 51.0
01/02/2022 19:00 571.60 0.01 -- 32.0 52.0
01/02/2022 18:00 571.63 0.01 -- 33.3 52.0
01/02/2022 17:00 571.61 0.02 -- 34.5 52.0
01/02/2022 16:00 571.59 0.00 -- 35.0 51.0
01/02/2022 15:00 571.58 0.00 -- 35.8 50.0
01/02/2022 14:00 571.55 0.01 -- 37.3 50.0
01/02/2022 13:00 571.59 0.01 -- 37.1 53.0
01/02/2022 12:00 571.58 0.02 -- 37.2 54.0
01/02/2022 11:00 571.58 0.01 -- 36.2 57.0
01/02/2022 10:00 571.57 0.00 -- 34.9 57.0
01/02/2022 09:00 571.61 0.01 -- 35.1 58.0
01/02/2022 08:00 571.56 0.00 -- 34.4 57.0
01/02/2022 07:00 571.56 0.02 -- 34.6 59.0
01/02/2022 06:00 571.61 0.00 -- 34.4 59.0
01/02/2022 05:00 571.58 0.02 -- 33.7 59.0
01/02/2022 04:00 571.59 0.00 -- 33.8 60.0
01/02/2022 03:00 571.57 0.00 -- 34.2 59.0
01/02/2022 02:00 571.57 0.00 -- 34.7 60.0
01/02/2022 01:00 571.60 0.00 -- 33.6 62.0
01/02/2022 00:00 571.56 0.01 0.14 33.0 62.0
01/01/2022 23:00 571.57 0.00 -- 33.1 63.0
01/01/2022 22:00 571.54 0.00 -- 33.0 62.0
01/01/2022 21:00 571.56 0.01 -- 33.2 63.0
01/01/2022 20:00 571.60 0.00 -- 33.3 65.0
01/01/2022 19:00 571.57 0.00 -- 33.3 64.0
01/01/2022 18:00 571.59 0.01 -- 33.8 65.0
01/01/2022 17:00 571.59 0.01 -- 34.1 65.0
01/01/2022 16:00 571.59 0.01 -- 34.6 65.0
01/01/2022 15:00 571.60 0.03 -- 34.8 64.0
01/01/2022 14:00 571.58 0.04 -- 35.3 65.0
01/01/2022 13:00 571.57 0.03 -- 34.8 68.0
01/01/2022 12:00 571.58 0.02 -- 34.7 69.0
01/01/2022 11:00 571.57 0.06 -- 34.1 69.0
01/01/2022 10:00 571.58 0.05 -- 33.8 70.0
01/01/2022 09:00 571.58 0.03 -- 33.2 69.0
01/01/2022 08:00 571.57 0.00 -- 33.0 70.0
01/01/2022 07:00 571.56 0.01 -- 32.9 71.0
01/01/2022 06:00 571.59 0.01 -- 32.9 71.0
01/01/2022 05:00 571.58 0.01 -- 33.1 70.0
01/01/2022 04:00 571.58 0.00 -- 32.9 71.0
01/01/2022 03:00 571.56 0.01 -- 32.9 73.0
01/01/2022 02:00 571.59 0.01 -- 33.1 73.0
01/01/2022 01:00 571.57 0.01 -- 33.0 73.0
01/01/2022 00:00 571.56 0.01 0.37 33.1 73.0
12/31/2021 23:00 571.57 0.00 -- 33.1 74.0
12/31/2021 22:00 571.57 0.02 -- 33.3 74.0
12/31/2021 21:00 571.57 0.02 -- 33.6 74.3
12/31/2021 20:00 571.56 0.02 -- 33.8 74.7
12/31/2021 19:00 571.56 0.01 -- 34.1 75.0
12/31/2021 18:00 571.57 0.02 -- 34.0 72.0
12/31/2021 17:00 571.56 0.02 -- 34.6 74.0
12/31/2021 16:00 571.57 0.03 -- 35.1 73.0
12/31/2021 15:00 571.58 0.03 -- 36.0 76.0
12/31/2021 14:00 571.56 0.04 -- 35.8 79.0
12/31/2021 13:00 571.58 0.03 -- 36.5 82.0
12/31/2021 12:00 571.59 0.01 -- 36.1 82.0
12/31/2021 11:00 571.57 0.01 -- 35.3 90.0
12/31/2021 10:00 571.57 0.01 -- 34.2 97.0
12/31/2021 09:00 571.58 0.01 -- 33.2 99.0
12/31/2021 08:00 571.58 0.00 -- 32.4 99.0
12/31/2021 07:00 571.58 0.01 -- 32.1 100.0
12/31/2021 06:00 571.57 0.00 -- 32.0 100.0
12/31/2021 05:00 571.57 0.00 -- 31.9 100.0
12/31/2021 04:00 571.58 0.00 -- 31.9 99.0
12/31/2021 03:00 571.58 0.00 -- 31.8 100.0
12/31/2021 02:00 571.57 0.00 -- 31.6 100.0
12/31/2021 01:00 571.59 0.00 -- 31.5 100.0
12/31/2021 00:00 571.56 0.00 0.31 31.2 100.0
12/30/2021 23:00 571.55 0.01 -- 31.9 100.0
12/30/2021 22:00 571.59 0.00 -- 32.1 100.0
12/30/2021 21:00 571.59 0.00 -- 32.2 100.0
12/30/2021 20:00 571.57 0.01 -- 32.3 100.0
12/30/2021 19:00 571.59 0.01 -- 32.5 100.0
12/30/2021 18:00 571.57 0.01 -- 32.9 100.0
12/30/2021 17:00 571.58 0.01 -- 33.0 100.0
12/30/2021 16:00 571.58 0.01 -- 33.6 100.0
12/30/2021 15:00 571.59 0.03 -- 34.6 100.0
12/30/2021 14:00 571.61 0.03 -- 35.5 100.0
12/30/2021 13:00 571.59 0.03 -- 35.0 100.0
12/30/2021 12:00 571.60 0.01 -- 34.5 100.0
12/30/2021 11:00 571.58 0.01 -- 33.1 100.0
12/30/2021 10:00 571.57 0.01 -- 32.5 100.0
12/30/2021 09:00 571.61 0.00 -- 31.9 100.0
12/30/2021 08:00 571.60 0.00 -- 31.8 100.0
12/30/2021 07:00 571.58 0.00 -- 31.6 100.0
12/30/2021 06:00 571.58 0.00 -- 31.4 100.0
12/30/2021 05:00 571.61 0.00 -- 31.2 100.0
12/30/2021 04:00 571.61 0.00 -- 31.2 100.0
12/30/2021 03:00 571.59 0.00 -- 31.6 100.0
12/30/2021 02:00 571.58 0.00 -- 31.7 100.0
12/30/2021 01:00 571.60 0.00 -- 31.8 100.0
12/30/2021 00:00 571.59 0.00 0.18 31.7 100.0
12/29/2021 23:00 571.58 0.00 -- 31.7 100.0
12/29/2021 22:00 571.59 0.00 -- 31.7 100.0
12/29/2021 21:00 571.60 0.00 -- 31.8 100.0
12/29/2021 20:00 571.59 0.00 -- 32.2 100.0
12/29/2021 19:00 571.60 0.01 -- 32.6 100.0
12/29/2021 18:00 571.60 0.00 -- 32.9 100.0
12/29/2021 17:00 571.59 0.01 -- 33.1 100.0
12/29/2021 16:00 571.60 0.04 -- 34.4 100.0
12/29/2021 15:00 571.60 0.00 -- 36.6 100.0
12/29/2021 14:00 571.60 0.03 -- 36.8 100.0
12/29/2021 13:00 571.61 0.02 -- 36.6 100.0
12/29/2021 12:00 571.60 0.00 -- 35.9 100.0
12/29/2021 11:00 571.60 0.01 -- 35.7 100.0
12/29/2021 10:00 571.61 0.00 -- 33.5 100.0
12/29/2021 09:00 571.60 0.00 -- 31.1 100.0
12/29/2021 08:00 571.60 0.00 -- 29.9 100.0
12/29/2021 07:00 571.60 0.00 -- 29.7 100.0
12/29/2021 06:00 571.60 0.00 -- 30.2 100.0
12/29/2021 05:00 571.61 0.00 -- 30.2 100.0
12/29/2021 04:00 571.60 0.00 -- 30.6 100.0
12/29/2021 03:00 571.59 0.00 -- 30.8 100.0
12/29/2021 02:00 571.59 0.00 -- 30.9 100.0
12/29/2021 01:00 571.59 0.00 -- 30.8 100.0
12/29/2021 00:00 571.57 0.00 0.12 31.3 100.0
12/28/2021 23:00 571.59 0.00 -- 32.0 100.0
12/28/2021 22:00 571.60 0.00 -- 33.3 100.0
12/28/2021 21:00 571.59 0.00 -- 31.6 100.0
12/28/2021 20:00 571.60 0.01 -- 33.0 100.0
12/28/2021 19:00 571.60 0.00 -- 32.3 100.0
12/28/2021 18:00 571.64 0.00 -- 33.5 100.0
12/28/2021 17:00 571.60 0.01 -- 32.3 100.0
12/28/2021 16:00 571.61 0.01 -- 33.2 100.0
12/28/2021 15:00 571.61 0.01 -- 34.3 100.0
12/28/2021 14:00 571.60 0.02 -- 34.2 100.0
12/28/2021 13:00 571.63 0.00 -- 33.5 100.0
12/28/2021 12:00 571.61 0.00 -- 32.7 100.0
12/28/2021 11:00 571.62 0.00 -- 32.6 100.0
12/28/2021 10:00 571.61 0.00 -- 30.4 100.0
12/28/2021 09:00 571.62 0.00 -- 28.5 100.0
12/28/2021 08:00 571.63 0.00 -- 27.5 100.0
12/28/2021 07:00 571.61 0.00 -- 26.4 100.0
12/28/2021 06:00 571.63 0.00 -- 25.5 100.0
12/28/2021 05:00 571.63 0.00 -- 24.8 100.0
12/28/2021 04:00 571.62 0.00 -- 24.3 100.0
12/28/2021 03:00 571.60 0.00 -- 23.4 100.0
12/28/2021 02:00 571.61 0.00 -- 22.4 100.0
12/28/2021 01:00 571.60 0.00 -- 22.5 100.0
12/28/2021 00:00 571.60 0.00 0.06 20.8 100.0
12/27/2021 23:00 571.62 0.00 -- 20.8 100.0
12/27/2021 22:00 571.60 0.00 -- 22.0 100.0
12/27/2021 21:00 571.62 0.00 -- 23.8 100.0
12/27/2021 20:00 571.61 0.00 -- 25.7 100.0
12/27/2021 19:00 571.62 0.00 -- 26.2 100.0
12/27/2021 18:00 571.63 0.00 -- 27.6 100.0
12/27/2021 17:00 571.63 0.00 -- 27.6 100.0
12/27/2021 16:00 571.60 0.00 -- 28.9 100.0
12/27/2021 15:00 571.62 0.00 -- 29.8 100.0
12/27/2021 14:00 571.62 0.00 -- 29.7 100.0
12/27/2021 13:00 571.61 0.00 -- 29.1 100.0
12/27/2021 12:00 571.62 0.00 -- 28.6 100.0
12/27/2021 11:00 571.62 0.00 -- 28.0 100.0
12/27/2021 10:00 571.63 0.00 -- 27.3 100.0
12/27/2021 09:00 571.63 0.00 -- 24.5 100.0
12/27/2021 08:00 571.65 0.00 -- 23.8 100.0
12/27/2021 07:00 571.65 0.00 -- 23.9 100.0
12/27/2021 06:00 571.63 0.00 -- 24.1 100.0
12/27/2021 05:00 571.62 0.00 -- 25.0 100.0
12/27/2021 04:00 571.63 0.00 -- 25.7 100.0
12/27/2021 03:00 571.63 0.00 -- 26.9 100.0
12/27/2021 02:00 571.63 0.00 -- 26.9 100.0
12/27/2021 01:00 571.64 0.00 -- 26.9 100.0
12/27/2021 00:00 571.62 0.00 0.00 27.2 100.0
12/26/2021 23:00 571.65 0.00 -- 27.5 100.0
12/26/2021 22:00 571.62 0.00 -- 27.8 100.0
12/26/2021 21:00 571.64 0.00 -- 29.0 100.0
12/26/2021 20:00 571.63 0.00 -- 29.5 100.0
12/26/2021 19:00 571.65 0.00 -- 29.1 100.0
12/26/2021 18:00 571.66 0.00 -- 29.2 100.0
12/26/2021 17:00 571.64 0.00 -- 29.6 100.0
12/26/2021 16:00 571.64 0.00 -- 30.5 100.0
12/26/2021 15:00 571.64 0.00 -- 30.8 100.0
12/26/2021 14:00 571.63 0.00 -- 31.2 100.0
12/26/2021 13:00 571.64 0.00 -- 31.2 100.0
12/26/2021 12:00 571.65 0.00 -- 30.3 100.0
12/26/2021 11:00 571.63 0.00 -- 29.7 100.0
12/26/2021 10:00 571.63 0.00 -- 29.8 100.0
12/26/2021 09:00 571.63 0.00 -- 28.3 100.0
12/26/2021 08:00 571.66 0.00 -- 27.4 100.0
12/26/2021 07:00 571.64 0.00 -- 27.2 100.0
12/26/2021 06:00 571.65 0.00 -- 27.1 100.0
12/26/2021 05:00 571.63 0.00 -- 27.0 100.0
12/26/2021 04:00 571.65 0.00 -- 26.9 100.0
12/26/2021 03:00 571.64 0.00 -- 26.9 100.0
12/26/2021 02:00 571.64 0.00 -- 26.6 100.0
12/26/2021 01:00 571.64 0.00 -- 26.5 100.0
12/26/2021 00:00 571.63 0.00 0.00 26.5 100.0
12/25/2021 23:00 571.64 0.00 -- 26.5 100.0
12/25/2021 22:00 571.64 0.00 -- 26.2 100.0
12/25/2021 21:00 571.65 0.00 -- 26.0 100.0
12/25/2021 20:00 571.64 0.00 -- 25.7 100.0
12/25/2021 19:00 571.63 0.00 -- 25.4 100.0
12/25/2021 18:00 571.63 0.00 -- 25.5 100.0
12/25/2021 17:00 571.64 0.00 -- 25.5 100.0
12/25/2021 16:00 571.63 0.00 -- 25.2 100.0
12/25/2021 15:00 571.65 0.00 -- 25.3 100.0
12/25/2021 14:00 571.64 0.00 -- 25.2 100.0
12/25/2021 13:00 571.63 0.00 -- 24.7 100.0
12/25/2021 12:00 571.64 0.00 -- 24.9 100.0
12/25/2021 11:00 571.63 0.00 -- 25.2 100.0
12/25/2021 10:00 571.62 0.00 -- 24.9 100.0
12/25/2021 09:00 571.62 0.00 -- 24.2 100.0
12/25/2021 08:00 571.63 0.00 -- 23.6 100.0
12/25/2021 07:00 571.59 0.00 -- 22.4 100.0
12/25/2021 06:00 571.63 0.00 -- 21.7 100.0
12/25/2021 05:00 571.64 0.00 -- 21.4 100.0
12/25/2021 04:00 571.61 0.00 -- 20.1 100.0
12/25/2021 03:00 571.62 0.00 -- 18.9 100.0
12/25/2021 02:00 571.63 0.00 -- 18.4 100.0
12/25/2021 01:00 571.62 0.00 -- 17.1 100.0
12/25/2021 00:00 571.63 0.00 0.00 15.3 100.0
12/24/2021 23:00 571.61 0.00 -- 14.6 100.0
12/24/2021 22:00 571.63 0.00 -- 14.9 100.0
12/24/2021 21:00 571.63 0.00 -- 15.7 100.0
12/24/2021 20:00 571.61 0.00 -- 16.6 100.0
12/24/2021 19:00 571.64 0.00 -- 17.1 100.0
12/24/2021 18:00 571.63 0.00 -- 18.6 100.0
12/24/2021 17:00 571.62 0.00 -- 20.5 100.0
12/24/2021 16:00 571.62 0.00 -- 22.0 100.0
12/24/2021 15:00 571.62 0.00 -- 24.1 100.0
12/24/2021 14:00 571.63 0.00 -- 24.6 100.0
12/24/2021 13:00 571.63 0.00 -- 24.8 100.0
12/24/2021 12:00 571.64 0.00 -- 23.4 100.0
12/24/2021 11:00 571.63 0.00 -- 22.8 100.0
12/24/2021 10:00 571.64 0.00 -- 20.9 100.0
12/24/2021 09:00 571.65 0.00 -- 18.8 100.0
12/24/2021 08:00 571.63 0.00 -- 17.8 100.0
12/24/2021 07:00 571.64 0.00 -- 16.3 100.0
12/24/2021 06:00 571.65 0.00 -- 15.2 100.0
12/24/2021 05:00 571.65 0.00 -- 17.2 100.0
12/24/2021 04:00 571.65 0.00 -- 17.8 100.0
12/24/2021 03:00 571.63 0.00 -- 17.1 100.0
12/24/2021 02:00 571.63 0.00 -- 16.8 100.0
12/24/2021 01:00 571.64 0.00 -- 15.5 100.0
12/24/2021 00:00 571.63 0.00 0.00 15.0 100.0
12/23/2021 23:00 571.62 0.00 -- 14.7 100.0
12/23/2021 22:00 571.62 0.00 -- 16.4 100.0
12/23/2021 21:00 571.61 0.00 -- 16.9 100.0
12/23/2021 20:00 571.64 0.00 -- 17.5 100.0
12/23/2021 19:00 571.68 0.00 -- 18.6 100.0
12/23/2021 18:00 571.65 0.00 -- 19.9 100.0
12/23/2021 17:00 571.65 0.00 -- 21.3 100.0
12/23/2021 16:00 571.68 0.00 -- 23.0 100.0
12/23/2021 15:00 571.66 0.00 -- 23.4 100.0
12/23/2021 14:00 571.67 0.00 -- 23.0 100.0
12/23/2021 13:00 571.63 0.00 -- 23.1 100.0
12/23/2021 12:00 571.65 0.00 -- 22.1 100.0
12/23/2021 11:00 571.64 0.00 -- 20.7 100.0
12/23/2021 10:00 571.65 0.00 -- 19.8 100.0
12/23/2021 09:00 571.66 0.00 -- 19.1 100.0
12/23/2021 08:00 571.64 0.00 -- 19.1 100.0
12/23/2021 07:00 571.64 0.00 -- 20.3 100.0
12/23/2021 06:00 571.64 0.00 -- 20.6 100.0
12/23/2021 05:00 571.64 0.00 -- 21.4 100.0
12/23/2021 04:00 571.67 0.00 -- 22.5 100.0
12/23/2021 03:00 571.67 0.00 -- 23.7 100.0
12/23/2021 02:00 571.66 0.00 -- 25.3 100.0
12/23/2021 01:00 571.66 0.00 -- 28.1 100.0
12/23/2021 00:00 571.66 0.00 0.00 30.3 100.0
12/22/2021 23:00 571.65 0.00 -- 30.6 100.0
12/22/2021 22:00 571.64 0.00 -- 31.0 100.0
12/22/2021 21:00 571.64 0.00 -- 31.1 100.0
12/22/2021 20:00 571.64 0.01 -- 31.8 100.0
12/22/2021 19:00 571.64 0.00 -- 33.2 100.0
12/22/2021 18:00 571.64 0.02 -- 34.5 100.0
12/22/2021 17:00 571.64 0.01 -- 34.8 100.0
12/22/2021 16:00 571.65 0.03 -- 35.0 100.0
12/22/2021 15:00 571.66 0.03 -- 34.7 100.0
12/22/2021 14:00 571.65 0.30 -- 33.3 100.0
12/22/2021 13:00 571.64 0.02 -- 32.3 100.0
12/22/2021 12:00 571.65 0.00 -- 32.1 100.0
12/22/2021 11:00 571.65 0.00 -- 31.6 100.0
12/22/2021 10:00 571.63 0.00 -- 30.6 100.0
12/22/2021 09:00 677.56 0.00 -- 27.8 84.0
12/22/2021 08:00 574.19 0.00 -- 9.2 100.0
12/22/2021 07:00 571.58 0.00 -- 27.1 100.0
12/22/2021 06:00 571.57 0.00 -- 26.2 100.0
12/22/2021 05:00 571.57 0.00 -- 25.3 100.0
12/22/2021 04:00 571.57 0.00 -- 25.5 100.0
12/22/2021 03:00 571.56 0.00 -- 25.9 100.0
12/22/2021 02:00 571.55 0.00 -- 25.7 100.0
12/22/2021 01:00 571.59 0.00 -- 24.4 100.0
12/22/2021 00:00 571.59 0.00 0.42 23.1 100.0
12/21/2021 23:00 571.59 0.00 -- 22.3 100.0
12/21/2021 22:00 571.59 0.00 -- 22.8 100.0
12/21/2021 21:00 571.62 0.00 -- 23.5 100.0
12/21/2021 20:00 571.57 0.00 -- 24.6 100.0
12/21/2021 19:00 571.57 0.00 -- 25.5 100.0
12/21/2021 18:00 571.62 0.00 -- 26.8 100.0
12/21/2021 17:00 571.55 0.00 -- 28.4 100.0
12/21/2021 16:00 571.58 0.00 -- 32.9 100.0
12/21/2021 15:00 571.60 0.00 -- 36.7 100.0
12/21/2021 14:00 571.59 0.00 -- 38.6 100.0
12/21/2021 13:00 571.60 0.00 -- 37.6 100.0
12/21/2021 12:00 571.60 0.00 -- 36.7 100.0
12/21/2021 11:00 571.59 0.00 -- 33.9 100.0
12/21/2021 10:00 571.59 0.00 -- 29.9 100.0
12/21/2021 09:00 571.59 0.00 -- 25.8 100.0
12/21/2021 08:00 571.61 0.00 -- 24.5 100.0
12/21/2021 07:00 571.59 0.00 -- 24.7 100.0
12/21/2021 06:00 571.61 0.00 -- 24.2 100.0
12/21/2021 05:00 571.60 0.00 -- 25.2 100.0
12/21/2021 04:00 571.63 0.00 -- 22.1 100.0
12/21/2021 03:00 571.61 0.00 -- 23.6 100.0
12/21/2021 02:00 571.60 0.00 -- 25.3 100.0
12/21/2021 01:00 571.61 0.00 -- 23.0 100.0
12/21/2021 00:00 571.63 0.00 0.00 23.1 100.0
12/20/2021 23:00 571.60 0.00 -- 24.2 100.0
12/20/2021 22:00 571.63 0.00 -- 24.2 100.0
12/20/2021 21:00 571.63 0.00 -- 24.2 100.0
12/20/2021 20:00 571.62 0.00 -- 23.6 100.0
12/20/2021 19:00 571.64 0.00 -- 22.1 100.0
12/20/2021 18:00 571.62 0.00 -- 19.5 100.0
12/20/2021 17:00 571.60 0.00 -- 22.1 100.0
12/20/2021 16:00 571.60 0.00 -- 24.2 100.0
12/20/2021 15:00 571.61 0.00 -- 25.9 100.0
12/20/2021 14:00 571.60 0.00 -- 26.4 100.0
12/20/2021 13:00 571.62 0.00 -- 25.5 100.0
12/20/2021 12:00 571.63 0.00 -- 24.0 100.0
12/20/2021 11:00 571.63 0.00 -- 22.6 100.0
12/20/2021 10:00 571.65 0.00 -- 19.5 100.0
12/20/2021 09:00 571.63 0.00 -- 17.5 100.0
12/20/2021 08:00 571.63 0.00 -- 12.1 100.0
12/20/2021 07:00 571.62 0.00 -- 12.1 100.0
12/20/2021 06:00 571.64 0.00 -- 13.6 100.0
12/20/2021 05:00 571.62 0.00 -- 15.7 100.0
12/20/2021 04:00 571.64 0.00 -- 15.3 100.0
12/20/2021 03:00 571.63 0.00 -- 17.2 100.0
12/20/2021 02:00 571.63 0.00 -- 16.3 100.0
12/20/2021 01:00 571.61 0.00 -- 14.7 100.0
12/20/2021 00:00 571.63 0.00 0.00 15.7 100.0
12/19/2021 23:00 571.62 0.00 -- 19.7 100.0
12/19/2021 22:00 571.61 0.00 -- 19.1 100.0
12/19/2021 21:00 571.63 0.00 -- 21.8 100.0
12/19/2021 20:00 571.61 0.00 -- 19.8 100.0
12/19/2021 19:00 571.64 0.00 -- 23.1 100.0
12/19/2021 18:00 571.61 0.00 -- 23.9 100.0
12/19/2021 17:00 571.63 0.00 -- 25.2 100.0
12/19/2021 16:00 571.64 0.00 -- 26.8 100.0
12/19/2021 15:00 571.64 0.00 -- 28.7 100.0
12/19/2021 14:00 571.64 0.00 -- 29.9 100.0
12/19/2021 13:00 571.64 0.00 -- 30.2 100.0
12/19/2021 12:00 571.63 0.00 -- 30.2 100.0
12/19/2021 11:00 571.63 0.00 -- 30.4 100.0
12/19/2021 10:00 571.64 0.00 -- 29.7 100.0
12/19/2021 09:00 571.63 0.00 -- 27.6 100.0
12/19/2021 08:00 571.63 0.00 -- 26.6 100.0
12/19/2021 07:00 571.63 0.00 -- 25.7 100.0
12/19/2021 06:00 571.62 0.00 -- 24.8 100.0
12/19/2021 05:00 571.64 0.00 -- 24.5 100.0
12/19/2021 04:00 571.62 0.00 -- 24.7 100.0
12/19/2021 03:00 571.61 0.00 -- 25.1 100.0
12/19/2021 02:00 571.62 0.00 -- 25.1 100.0
12/19/2021 01:00 571.61 0.00 -- 25.7 100.0
12/19/2021 00:00 571.64 0.00 0.00 26.0 100.0
12/18/2021 23:00 571.62 0.00 -- 26.4 100.0
12/18/2021 22:00 571.65 0.00 -- 26.5 100.0
12/18/2021 21:00 571.62 0.00 -- 26.8 100.0
12/18/2021 20:00 571.62 0.00 -- 27.0 100.0
12/18/2021 19:00 571.61 0.00 -- 27.6 100.0
12/18/2021 18:00 571.61 0.00 -- 28.6 100.0
12/18/2021 17:00 571.60 0.00 -- 29.2 100.0
12/18/2021 16:00 571.62 0.00 -- 29.2 100.0
12/18/2021 15:00 571.60 0.00 -- 29.5 100.0
12/18/2021 14:00 571.62 0.00 -- 29.6 100.0
12/18/2021 13:00 571.58 0.00 -- 32.7 100.0
12/18/2021 12:00 571.57 0.00 -- 33.7 100.0
12/18/2021 11:00 571.60 0.00 -- 33.5 100.0
12/18/2021 10:00 571.62 0.00 -- 33.5 100.0
12/18/2021 09:00 571.57 0.00 -- 32.3 100.0
12/18/2021 08:00 571.64 0.00 -- 31.0 100.0
12/18/2021 07:00 571.62 0.00 -- 31.0 100.0
12/18/2021 06:00 571.58 0.00 -- 28.8 100.0
12/18/2021 05:00 571.60 0.00 -- 29.5 100.0
12/18/2021 04:00 571.61 0.00 -- 32.9 100.0
12/18/2021 03:00 571.58 0.00 -- 33.7 100.0
12/18/2021 02:00 571.61 0.00 -- 34.5 100.0
12/18/2021 01:00 571.58 0.00 -- 36.1 100.0
12/18/2021 00:00 571.58 0.00 0.00 37.0 100.0
12/17/2021 23:00 571.59 0.00 -- 38.6 100.0
12/17/2021 22:00 571.60 0.00 -- 37.3 100.0
12/17/2021 21:00 571.61 0.00 -- 40.2 100.0
12/17/2021 20:00 571.61 0.00 -- 41.9 100.0
12/17/2021 19:00 571.63 0.00 -- 43.6 100.0
12/17/2021 18:00 571.62 0.00 -- 44.9 100.0
12/17/2021 17:00 571.61 0.00 -- 45.7 100.0
12/17/2021 16:00 571.61 0.00 -- 47.7 100.0
12/17/2021 15:00 571.60 0.00 -- 48.7 100.0
12/17/2021 14:00 571.60 0.00 -- 48.4 100.0
12/17/2021 13:00 571.60 0.00 -- 47.5 100.0
12/17/2021 12:00 571.61 0.00 -- 47.2 100.0
12/17/2021 11:00 571.60 0.00 -- 46.4 100.0
12/17/2021 10:00 571.60 0.00 -- 45.9 100.0
12/17/2021 09:00 571.59 0.00 -- 45.9 100.0
12/17/2021 08:00 571.68 0.00 -- 47.2 88.0
12/17/2021 07:00 571.57 0.00 -- 47.6 66.0
12/17/2021 06:00 571.66 0.00 -- 50.7 52.0
12/17/2021 05:00 571.65 0.00 -- 54.7 38.0
12/17/2021 04:00 571.61 0.00 -- 54.4 42.0
12/17/2021 03:00 571.57 0.00 -- 53.8 48.0
12/17/2021 02:00 571.57 0.00 -- 52.5 64.0
12/17/2021 01:00 571.58 0.00 -- 51.3 73.0
12/17/2021 00:00 571.59 0.00 0.00 52.0 98.0
12/16/2021 23:00 571.61 0.00 -- 48.2 100.0
12/16/2021 22:00 571.60 0.00 -- 44.0 100.0
12/16/2021 21:00 571.61 0.00 -- 41.8 100.0
12/16/2021 20:00 571.60 0.00 -- 39.0 100.0
12/16/2021 19:00 571.62 0.00 -- 40.7 100.0
12/16/2021 18:00 571.60 0.00 -- 40.5 100.0
12/16/2021 17:00 571.61 0.00 -- 41.7 100.0
12/16/2021 16:00 571.58 0.00 -- 44.2 100.0
12/16/2021 15:00 571.60 0.00 -- 46.4 100.0
12/16/2021 14:00 571.59 0.00 -- 46.8 100.0
12/16/2021 13:00 571.61 0.00 -- 45.1 100.0
12/16/2021 12:00 571.62 0.00 -- 41.0 100.0
12/16/2021 11:00 571.65 0.00 -- 38.8 100.0
12/16/2021 10:00 571.64 0.00 -- 37.3 100.0
12/16/2021 09:00 571.62 0.00 -- 36.1 100.0
12/16/2021 08:00 571.59 0.02 -- 34.5 100.0
12/16/2021 07:00 571.66 0.08 -- 33.9 100.0
12/16/2021 06:00 571.61 0.00 -- 33.4 100.0
12/16/2021 05:00 571.60 0.00 -- 33.2 100.0
12/16/2021 04:00 571.58 0.01 -- 33.3 100.0
12/16/2021 03:00 571.58 0.01 -- 33.6 100.0
12/16/2021 02:00 571.59 0.10 -- 33.4 100.0
12/16/2021 01:00 571.57 0.07 -- 33.5 100.0
12/16/2021 00:00 571.58 0.10 0.29 33.3 100.0
12/15/2021 23:00 571.56 0.02 -- 33.0 100.0
12/15/2021 22:00 571.58 0.00 -- 33.0 100.0
12/15/2021 21:00 571.58 0.00 -- 32.3 100.0
12/15/2021 20:00 571.56 0.00 -- 32.1 100.0
12/15/2021 19:00 571.59 0.00 -- 33.6 100.0
12/15/2021 18:00 571.57 0.00 -- 34.4 100.0
12/15/2021 17:00 571.58 0.00 -- 34.3 100.0
12/15/2021 16:00 571.58 0.00 -- 35.4 100.0
12/15/2021 15:00 571.58 0.00 -- 37.1 100.0
12/15/2021 14:00 571.58 0.00 -- 37.7 100.0
12/15/2021 13:00 571.60 0.00 -- 38.1 100.0
12/15/2021 12:00 571.57 0.00 -- 36.2 100.0
12/15/2021 11:00 571.58 0.00 -- 34.0 100.0
12/15/2021 10:00 571.57 0.00 -- 31.4 100.0
12/15/2021 09:00 571.59 0.00 -- 29.5 100.0
12/15/2021 08:00 571.57 0.00 -- 27.2 100.0
12/15/2021 07:00 571.57 0.00 -- 28.9 100.0
12/15/2021 06:00 571.58 0.00 -- 29.3 100.0
12/15/2021 05:00 571.58 0.00 -- 29.5 100.0
12/15/2021 04:00 571.57 0.00 -- 29.1 100.0
12/15/2021 03:00 571.60 0.00 -- 28.9 100.0
12/15/2021 02:00 571.58 0.00 -- 25.7 100.0
12/15/2021 01:00 571.59 0.00 -- 24.8 100.0
12/15/2021 00:00 571.59 0.00 0.12 25.5 100.0
12/14/2021 23:00 571.57 0.00 -- 26.1 100.0
12/14/2021 22:00 571.58 0.00 -- 26.8 100.0
12/14/2021 21:00 571.59 0.00 -- 29.1 100.0
12/14/2021 20:00 571.59 0.00 -- 28.7 100.0
12/14/2021 19:00 571.60 0.00 -- 30.9 100.0
12/14/2021 18:00 571.58 0.00 -- 36.7 100.0
12/14/2021 17:00 571.59 0.00 -- 38.2 100.0
12/14/2021 16:00 571.59 0.00 -- 39.8 100.0
12/14/2021 15:00 571.59 0.00 -- 42.6 100.0
12/14/2021 14:00 571.59 0.00 -- 42.5 100.0
12/14/2021 13:00 571.58 0.00 -- 42.6 100.0
12/14/2021 12:00 571.61 0.00 -- 42.3 100.0
12/14/2021 11:00 571.58 0.00 -- 41.9 100.0
12/14/2021 10:00 571.58 0.00 -- 41.0 100.0
12/14/2021 09:00 571.61 0.00 -- 39.8 100.0
12/14/2021 08:00 571.60 0.00 -- 36.7 100.0
12/14/2021 07:00 571.60 0.00 -- 38.6 100.0
12/14/2021 06:00 571.61 0.00 -- 40.2 100.0
12/14/2021 05:00 571.60 0.00 -- 41.8 100.0
12/14/2021 04:00 571.61 0.00 -- 42.0 100.0
12/14/2021 03:00 571.63 0.00 -- 41.8 100.0
12/14/2021 02:00 571.60 0.00 -- 40.8 100.0
12/14/2021 01:00 571.59 0.00 -- 41.4 100.0
12/14/2021 00:00 571.60 0.00 0.00 40.9 100.0
12/13/2021 23:00 571.61 0.00 -- 43.2 100.0
12/13/2021 22:00 571.60 0.00 -- 44.5 100.0
12/13/2021 21:00 571.62 0.00 -- 45.4 100.0
12/13/2021 20:00 571.62 0.00 -- 44.9 100.0
12/13/2021 19:00 571.61 0.00 -- 36.5 100.0
12/13/2021 18:00 571.60 0.00 -- 39.9 100.0
12/13/2021 17:00 571.61 0.00 -- 41.3 100.0
12/13/2021 16:00 571.59 0.00 -- 42.0 100.0
12/13/2021 15:00 571.61 0.00 -- 46.1 100.0
12/13/2021 14:00 571.62 0.00 -- 46.6 100.0
12/13/2021 13:00 571.64 0.00 -- 45.4 100.0
12/13/2021 12:00 571.61 0.00 -- 43.6 100.0
12/13/2021 11:00 571.62 0.00 -- 42.6 100.0
12/13/2021 10:00 571.60 0.00 -- 41.3 100.0
12/13/2021 09:00 571.61 0.00 -- 40.3 100.0
12/13/2021 08:00 571.62 0.00 -- 38.6 100.0
12/13/2021 07:00 571.60 0.00 -- 34.3 100.0
12/13/2021 06:00 571.62 0.00 -- 32.7 100.0
12/13/2021 05:00 571.61 0.00 -- 36.2 100.0
12/13/2021 04:00 571.62 0.00 -- 32.7 100.0
12/13/2021 03:00 571.61 0.00 -- 34.1 100.0
12/13/2021 02:00 571.60 0.00 -- 34.1 100.0
12/13/2021 01:00 571.60 0.00 -- 33.9 100.0
12/13/2021 00:00 571.61 0.00 0.00 33.5 100.0
12/12/2021 23:00 571.59 0.00 -- 33.1 100.0
12/12/2021 22:00 571.61 0.00 -- 32.5 100.0
12/12/2021 21:00 571.62 0.00 -- 33.9 100.0
12/12/2021 20:00 571.60 0.00 -- 36.4 100.0
12/12/2021 19:00 571.61 0.00 -- 35.8 100.0
12/12/2021 18:00 571.61 0.00 -- 37.5 100.0
12/12/2021 17:00 571.60 0.00 -- 37.8 100.0
12/12/2021 16:00 571.59 0.00 -- 39.8 100.0
12/12/2021 15:00 571.59 0.00 -- 41.3 100.0
12/12/2021 14:00 571.63 0.00 -- 41.3 100.0
12/12/2021 13:00 571.61 0.00 -- 40.8 100.0
12/12/2021 12:00 571.62 0.00 -- 39.8 100.0
12/12/2021 11:00 571.63 0.00 -- 38.7 100.0
12/12/2021 10:00 571.58 0.00 -- 38.2 100.0
12/12/2021 09:00 571.61 0.00 -- 36.6 100.0
12/12/2021 08:00 571.59 0.00 -- 36.5 100.0
12/12/2021 07:00 571.59 0.00 -- 37.9 100.0
12/12/2021 06:00 571.62 0.00 -- 39.9 100.0
12/12/2021 05:00 571.63 0.00 -- 40.4 100.0
12/12/2021 04:00 571.58 0.00 -- 41.9 100.0
12/12/2021 03:00 571.61 0.00 -- 42.6 100.0
12/12/2021 02:00 571.56 0.01 -- 43.7 100.0
12/12/2021 01:00 571.58 0.00 -- 47.3 100.0
12/12/2021 00:00 571.54 0.20 0.01 51.6 100.0
12/11/2021 23:00 571.58 0.00 -- 54.1 100.0
12/11/2021 22:00 571.57 0.00 -- 50.9 100.0
12/11/2021 21:00 571.56 0.00 -- 39.7 100.0
12/11/2021 20:00 571.53 0.00 -- 36.8 100.0
12/11/2021 19:00 571.61 0.01 -- 34.2 100.0
12/11/2021 18:00 571.56 0.00 -- 32.5 100.0
12/11/2021 17:00 571.55 0.00 -- 32.3 100.0
12/11/2021 16:00 571.49 0.01 -- 32.2 100.0
12/11/2021 15:00 571.61 0.02 -- 32.2 100.0
12/11/2021 14:00 571.61 0.03 -- 32.3 100.0
12/11/2021 13:00 571.53 0.03 -- 32.2 100.0
12/11/2021 12:00 571.60 0.21 -- 32.0 100.0
12/11/2021 11:00 571.60 0.29 -- 32.0 100.0
12/11/2021 10:00 571.48 0.04 -- 31.1 100.0
12/11/2021 09:00 571.51 0.00 -- 29.8 100.0
12/11/2021 08:00 571.49 0.00 -- 28.4 100.0
12/11/2021 07:00 571.49 0.00 -- 27.8 100.0
12/11/2021 06:00 571.51 0.00 -- 27.9 100.0
12/11/2021 05:00 571.47 0.00 -- 28.2 100.0
12/11/2021 04:00 571.49 0.00 -- 28.3 100.0
12/11/2021 03:00 571.53 0.00 -- 28.2 100.0
12/11/2021 02:00 571.53 0.00 -- 27.4 100.0
12/11/2021 01:00 571.49 0.00 -- 27.1 100.0
12/11/2021 00:00 571.52 0.00 0.84 26.3 100.0
12/10/2021 23:00 571.52 0.00 -- 24.8 100.0
12/10/2021 22:00 571.52 0.00 -- 27.0 100.0
12/10/2021 21:00 571.50 0.00 -- 27.5 100.0
12/10/2021 20:00 571.52 0.00 -- 27.2 100.0
12/10/2021 19:00 571.52 0.00 -- 26.3 100.0
12/10/2021 18:00 571.52 0.00 -- 26.4 100.0
12/10/2021 17:00 571.50 0.00 -- 26.4 100.0
12/10/2021 16:00 571.52 0.00 -- 26.1 100.0
12/10/2021 15:00 571.50 0.00 -- 25.7 100.0
12/10/2021 14:00 571.52 0.00 -- 24.6 100.0
12/10/2021 13:00 571.54 0.00 -- 22.9 100.0
12/10/2021 12:00 571.51 0.00 -- 21.4 100.0
12/10/2021 11:00 571.49 0.00 -- 20.6 100.0
12/10/2021 10:00 571.53 0.00 -- 19.9 100.0
12/10/2021 09:00 571.50 0.00 -- 19.1 100.0
12/10/2021 08:00 571.51 0.00 -- 18.8 100.0
12/10/2021 07:00 571.54 0.00 -- 18.7 100.0
12/10/2021 06:00 571.54 0.00 -- 18.7 100.0
12/10/2021 05:00 571.54 0.00 -- 18.6 100.0
12/10/2021 04:00 571.55 0.00 -- 18.7 100.0
12/10/2021 03:00 571.51 0.00 -- 17.5 100.0
12/10/2021 02:00 571.55 0.00 -- 17.5 100.0
12/10/2021 01:00 571.51 0.00 -- 17.7 100.0
12/10/2021 00:00 571.54 0.00 0.00 19.5 100.0
12/09/2021 23:00 571.52 0.00 -- 20.7 100.0
12/09/2021 22:00 571.52 0.00 -- 23.1 100.0
12/09/2021 21:00 571.57 0.00 -- 23.5 100.0
12/09/2021 20:00 571.56 0.00 -- 24.2 100.0
12/09/2021 19:00 571.56 0.00 -- 25.3 100.0
12/09/2021 18:00 571.56 0.00 -- 26.4 100.0
12/09/2021 17:00 571.56 0.00 -- 27.4 100.0
12/09/2021 16:00 571.56 0.00 -- 28.5 100.0
12/09/2021 15:00 571.55 0.00 -- 28.8 100.0
12/09/2021 14:00 571.54 0.00 -- 29.6 100.0
12/09/2021 13:00 571.57 0.00 -- 29.8 100.0
12/09/2021 12:00 571.54 0.00 -- 30.3 100.0
12/09/2021 11:00 571.54 0.00 -- 30.2 100.0
12/09/2021 10:00 571.54 0.00 -- 28.9 100.0
12/09/2021 09:00 571.54 0.00 -- 25.1 100.0
12/09/2021 08:00 571.55 0.00 -- 19.5 100.0
12/09/2021 07:00 571.53 0.00 -- 19.6 100.0
12/09/2021 06:00 571.54 0.00 -- 19.9 100.0
12/09/2021 05:00 571.54 0.00 -- 20.8 100.0
12/09/2021 04:00 571.56 0.00 -- 20.1 100.0
12/09/2021 03:00 571.56 0.00 -- 20.6 100.0
12/09/2021 02:00 571.55 0.00 -- 20.9 100.0
12/09/2021 01:00 571.54 0.00 -- 20.3 100.0
12/09/2021 00:00 571.54 0.00 0.00 20.3 100.0
12/08/2021 23:00 571.55 0.00 -- 20.2 100.0
12/08/2021 22:00 571.54 0.00 -- 20.8 100.0
12/08/2021 21:00 571.55 0.00 -- 21.1 100.0
12/08/2021 20:00 571.54 0.00 -- 21.3 100.0
12/08/2021 19:00 571.54 0.00 -- 21.5 100.0
12/08/2021 18:00 571.53 0.00 -- 22.5 100.0
12/08/2021 17:00 571.54 0.00 -- 22.9 100.0
12/08/2021 16:00 571.53 0.00 -- 23.3 100.0
12/08/2021 15:00 571.57 0.00 -- 23.7 100.0
12/08/2021 14:00 571.56 0.00 -- 24.6 100.0
12/08/2021 13:00 571.57 0.00 -- 24.3 100.0
12/08/2021 12:00 571.55 0.00 -- 24.1 100.0
12/08/2021 11:00 571.58 0.00 -- 23.8 100.0
12/08/2021 10:00 571.56 0.00 -- 24.0 100.0
12/08/2021 09:00 571.56 0.00 -- 25.3 100.0
12/08/2021 08:00 571.56 0.00 -- 25.3 100.0
12/08/2021 07:00 571.55 0.00 -- 24.9 100.0
12/08/2021 06:00 571.54 0.00 -- 25.6 100.0
12/08/2021 05:00 571.56 0.00 -- 25.7 100.0
12/08/2021 04:00 571.56 0.00 -- 24.0 100.0
12/08/2021 03:00 571.56 0.00 -- 24.2 100.0
12/08/2021 02:00 571.56 0.00 -- 24.8 100.0
12/08/2021 01:00 571.56 0.00 -- 25.4 100.0
12/08/2021 00:00 571.56 0.00 0.00 26.4 100.0
12/07/2021 23:00 571.57 0.00 -- 26.5 100.0
12/07/2021 22:00 571.56 0.00 -- 26.7 100.0
12/07/2021 21:00 571.56 0.00 -- 27.6 100.0
12/07/2021 20:00 571.56 0.00 -- 28.2 100.0
12/07/2021 19:00 571.56 0.00 -- 29.6 100.0
12/07/2021 18:00 571.56 0.00 -- 31.3 100.0
12/07/2021 17:00 571.55 0.00 -- 31.6 100.0
12/07/2021 16:00 571.56 0.00 -- 33.6 100.0
12/07/2021 15:00 571.58 0.00 -- 34.8 100.0
12/07/2021 14:00 571.56 0.00 -- 35.2 100.0
12/07/2021 13:00 571.57 0.00 -- 35.2 100.0
12/07/2021 12:00 571.59 0.00 -- 35.2 100.0
12/07/2021 11:00 571.57 0.00 -- 34.8 100.0
12/07/2021 10:00 571.58 0.00 -- 34.8 100.0
12/07/2021 09:00 571.57 0.00 -- 34.5 100.0
12/07/2021 08:00 571.55 0.00 -- 34.4 100.0
12/07/2021 07:00 571.56 0.00 -- 34.8 100.0
12/07/2021 06:00 571.55 0.00 -- 35.4 100.0
12/07/2021 05:00 571.55 0.00 -- 36.0 100.0
12/07/2021 04:00 571.58 0.00 -- 36.0 100.0
12/07/2021 03:00 571.57 0.00 -- 36.3 100.0
12/07/2021 02:00 571.58 0.00 -- 37.8 100.0
12/07/2021 01:00 571.57 0.00 -- 39.6 100.0
12/07/2021 00:00 571.54 0.00 0.00 41.4 100.0
12/06/2021 23:00 571.60 0.00 -- 42.8 100.0
12/06/2021 22:00 571.51 0.09 -- 45.9 100.0
12/06/2021 21:00 571.55 0.03 -- 53.2 100.0
12/06/2021 20:00 571.59 0.02 -- 53.1 100.0
12/06/2021 19:00 571.58 0.00 -- 53.0 100.0
12/06/2021 18:00 571.55 0.00 -- 53.2 100.0
12/06/2021 17:00 571.56 0.00 -- 50.3 100.0
12/06/2021 16:00 571.52 0.00 -- 47.6 100.0
12/06/2021 15:00 571.57 0.00 -- 36.2 100.0
12/06/2021 14:00 571.57 0.01 -- 34.7 100.0
12/06/2021 13:00 571.55 0.01 -- 34.2 100.0
12/06/2021 12:00 571.61 0.01 -- 33.6 100.0
12/06/2021 11:00 571.53 0.02 -- 32.8 100.0
12/06/2021 10:00 571.54 0.03 -- 32.3 100.0
12/06/2021 09:00 571.57 0.10 -- 32.0 100.0
12/06/2021 08:00 571.56 0.05 -- 31.7 100.0
12/06/2021 07:00 571.52 0.00 -- 30.6 100.0
12/06/2021 06:00 571.53 0.00 -- 30.2 100.0
12/06/2021 05:00 571.54 0.00 -- 30.6 100.0
12/06/2021 04:00 571.55 0.00 -- 30.9 100.0
12/06/2021 03:00 571.57 0.00 -- 31.0 100.0
12/06/2021 02:00 571.59 0.00 -- 30.6 100.0
12/06/2021 01:00 571.57 0.00 -- 30.3 100.0
12/06/2021 00:00 571.54 0.00 0.37 30.6 100.0
12/05/2021 23:00 571.55 0.00 -- 29.9 100.0
12/05/2021 22:00 571.56 0.00 -- 29.2 100.0
12/05/2021 21:00 571.57 0.00 -- 28.0 100.0
12/05/2021 20:00 571.55 0.00 -- 26.6 100.0
12/05/2021 19:00 571.54 0.00 -- 27.5 100.0
12/05/2021 18:00 571.55 0.00 -- 28.4 100.0
12/05/2021 17:00 571.55 0.00 -- 29.4 100.0
12/05/2021 16:00 571.54 0.00 -- 32.5 100.0
12/05/2021 15:00 571.56 0.00 -- 35.8 100.0
12/05/2021 14:00 571.55 0.00 -- 36.1 100.0
12/05/2021 13:00 571.56 0.00 -- 35.6 100.0
12/05/2021 12:00 571.56 0.00 -- 34.6 100.0
12/05/2021 11:00 571.56 0.00 -- 34.3 100.0
12/05/2021 10:00 571.56 0.00 -- 33.3 100.0
12/05/2021 09:00 571.57 0.00 -- 29.3 100.0
12/05/2021 08:00 571.56 0.00 -- 25.6 100.0
12/05/2021 07:00 571.56 0.00 -- 25.2 100.0
12/05/2021 06:00 571.55 0.00 -- 26.0 100.0
12/05/2021 05:00 571.56 0.00 -- 26.1 100.0
12/05/2021 04:00 571.55 0.00 -- 27.3 100.0
12/05/2021 03:00 571.55 0.00 -- 26.5 100.0
12/05/2021 02:00 571.58 0.00 -- 27.6 100.0
12/05/2021 01:00 571.58 0.00 -- 27.7 100.0
12/05/2021 00:00 571.57 0.00 0.00 28.3 100.0
12/04/2021 23:00 571.56 0.00 -- 30.9 100.0
12/04/2021 22:00 571.54 0.00 -- 32.5 100.0
12/04/2021 21:00 571.58 0.00 -- 29.1 100.0
12/04/2021 20:00 571.58 0.00 -- 28.6 100.0
12/04/2021 19:00 571.57 0.00 -- 30.8 100.0
12/04/2021 18:00 571.59 0.00 -- 29.2 100.0
12/04/2021 17:00 571.60 0.00 -- 30.0 100.0
12/04/2021 16:00 571.56 0.00 -- 32.3 100.0
12/04/2021 15:00 571.58 0.00 -- 32.7 100.0
12/04/2021 14:00 571.59 0.00 -- 32.1 100.0
12/04/2021 13:00 571.59 0.00 -- 31.2 100.0
12/04/2021 12:00 571.61 0.00 -- 30.1 100.0
12/04/2021 11:00 571.60 0.00 -- 28.7 100.0
12/04/2021 10:00 571.58 0.00 -- 27.8 100.0
12/04/2021 09:00 571.59 0.00 -- 25.1 100.0
12/04/2021 08:00 571.59 0.00 -- 23.2 100.0
12/04/2021 07:00 571.59 0.00 -- 22.8 100.0
12/04/2021 06:00 571.59 0.00 -- 22.7 100.0
12/04/2021 05:00 571.58 0.00 -- 22.9 100.0
12/04/2021 04:00 571.59 0.00 -- 22.7 100.0
12/04/2021 03:00 571.58 0.00 -- 24.7 100.0
12/04/2021 02:00 571.60 0.00 -- 25.5 100.0
12/04/2021 01:00 571.64 0.00 -- 26.2 100.0
12/04/2021 00:00 571.61 0.00 0.00 26.3 100.0
12/03/2021 23:00 571.62 0.00 -- 27.1 100.0
12/03/2021 22:00 571.61 0.00 -- 27.6 100.0
12/03/2021 21:00 571.60 0.00 -- 28.0 100.0
12/03/2021 20:00 571.63 0.00 -- 29.0 100.0
12/03/2021 19:00 571.62 0.00 -- 29.5 100.0
12/03/2021 18:00 571.64 0.00 -- 30.7 100.0
12/03/2021 17:00 571.63 0.00 -- 31.2 100.0
12/03/2021 16:00 571.63 0.00 -- 31.9 100.0
12/03/2021 15:00 571.67 0.00 -- 32.6 100.0
12/03/2021 14:00 571.63 0.00 -- 32.5 100.0
12/03/2021 13:00 571.59 0.00 -- 32.6 100.0
12/03/2021 12:00 571.59 0.00 -- 32.7 100.0
12/03/2021 11:00 571.61 0.00 -- 32.4 100.0
12/03/2021 10:00 571.63 0.00 -- 32.1 100.0
12/03/2021 09:00 571.65 0.00 -- 32.2 100.0
12/03/2021 08:00 571.60 0.00 -- 32.3 100.0
12/03/2021 07:00 571.60 0.00 -- 33.1 100.0
12/03/2021 06:00 571.65 0.00 -- 34.4 100.0
12/03/2021 05:00 571.61 0.00 -- 36.3 100.0
12/03/2021 04:00 571.60 0.00 -- 36.8 100.0
12/03/2021 03:00 571.62 0.01 -- 37.4 100.0
12/03/2021 02:00 571.62 0.00 -- 41.1 96.0
12/03/2021 01:00 571.62 0.00 -- 41.5 97.0
12/03/2021 00:00 571.62 0.00 0.01 38.6 97.0
12/02/2021 23:00 571.64 0.00 -- 38.6 98.0
12/02/2021 22:00 571.61 0.00 -- 39.9 96.0
12/02/2021 21:00 571.66 0.01 -- 42.3 87.0
12/02/2021 20:00 571.63 0.01 -- 44.7 93.0
12/02/2021 19:00 571.61 0.00 -- 45.2 100.0
12/02/2021 18:00 571.65 0.00 -- 44.0 100.0
12/02/2021 17:00 571.61 0.00 -- 42.5 100.0
12/02/2021 16:00 571.64 0.00 -- 42.8 100.0
12/02/2021 15:00 571.64 0.00 -- 42.5 100.0
12/02/2021 14:00 571.62 0.00 -- 41.6 100.0
12/02/2021 13:00 571.64 0.03 -- 40.0 100.0
12/02/2021 12:00 571.58 0.08 -- 38.8 100.0
12/02/2021 11:00 571.60 0.07 -- 34.5 100.0
12/02/2021 10:00 571.58 0.10 -- 32.9 100.0
12/02/2021 09:00 571.64 0.00 -- 32.2 100.0
12/02/2021 08:00 571.59 0.00 -- 32.0 100.0
12/02/2021 07:00 571.62 0.00 -- 30.8 100.0
12/02/2021 06:00 571.61 0.00 -- 30.2 100.0
12/02/2021 05:00 571.61 0.00 -- 29.5 100.0
12/02/2021 04:00 571.61 0.00 -- 30.8 100.0
12/02/2021 03:00 571.61 0.00 -- 29.4 100.0
12/02/2021 02:00 571.59 0.00 -- 28.9 100.0
12/02/2021 01:00 571.61 0.00 -- 29.1 100.0
12/02/2021 00:00 571.60 0.00 0.30 28.6 100.0
12/01/2021 23:00 571.61 0.00 -- 29.9 100.0
12/01/2021 22:00 571.61 0.00 -- 30.9 100.0
12/01/2021 21:00 571.58 0.00 -- 31.1 100.0
12/01/2021 20:00 571.64 0.00 -- 31.0 100.0
12/01/2021 19:00 571.63 0.00 -- 30.8 100.0
12/01/2021 18:00 571.61 0.00 -- 32.4 100.0
12/01/2021 17:00 571.62 0.00 -- 34.7 100.0
12/01/2021 16:00 571.60 0.00 -- 37.1 100.0
12/01/2021 15:00 571.59 0.00 -- 39.7 100.0
12/01/2021 14:00 571.58 0.00 -- 40.4 100.0
12/01/2021 13:00 571.63 0.00 -- 41.1 100.0
12/01/2021 12:00 571.63 0.00 -- 40.8 100.0
12/01/2021 11:00 571.64 0.00 -- 38.1 100.0
12/01/2021 10:00 571.64 0.00 -- 36.9 100.0
12/01/2021 09:00 571.65 0.00 -- 34.7 100.0
12/01/2021 08:00 571.63 0.00 -- 27.6 100.0
12/01/2021 07:00 571.62 0.00 -- 25.9 100.0
12/01/2021 06:00 571.62 0.00 -- 26.6 100.0
12/01/2021 05:00 571.64 0.00 -- 26.7 100.0
12/01/2021 04:00 571.63 0.00 -- 26.7 100.0
12/01/2021 03:00 571.64 0.00 -- 27.0 100.0
12/01/2021 02:00 571.64 0.00 -- 27.9 100.0
12/01/2021 01:00 571.64 0.00 -- 29.0 100.0
12/01/2021 00:00 571.64 0.00 0.00 29.8 100.0
11/30/2021 23:00 571.64 0.00 -- 31.1 100.0
11/30/2021 22:00 571.64 0.00 -- 31.6 100.0
11/30/2021 21:00 571.64 0.00 -- 32.5 100.0
11/30/2021 20:00 571.65 0.00 -- 32.4 100.0
11/30/2021 19:00 571.65 0.00 -- 32.5 100.0
11/30/2021 18:00 571.65 0.00 -- 32.3 100.0
11/30/2021 17:00 571.66 0.00 -- 32.3 100.0
11/30/2021 16:00 571.65 0.00 -- 33.5 100.0
11/30/2021 15:00 571.65 0.00 -- 33.9 100.0
11/30/2021 14:00 571.64 0.00 -- 33.6 100.0
11/30/2021 13:00 571.66 0.00 -- 31.9 100.0
11/30/2021 12:00 571.65 0.00 -- 30.5 100.0
11/30/2021 11:00 571.64 0.00 -- 29.2 100.0
11/30/2021 10:00 571.65 0.00 -- 27.0 100.0
11/30/2021 09:00 571.66 0.00 -- 24.1 100.0
11/30/2021 08:00 571.67 0.00 -- 22.7 100.0
11/30/2021 07:00 571.66 0.00 -- 21.9 100.0
11/30/2021 06:00 571.66 0.00 -- 22.1 100.0
11/30/2021 05:00 571.68 0.00 -- 21.7 100.0
11/30/2021 04:00 571.66 0.00 -- 22.5 100.0
11/30/2021 03:00 571.67 0.00 -- 23.1 100.0
11/30/2021 02:00 571.67 0.00 -- 23.2 100.0
11/30/2021 01:00 571.68 0.00 -- 24.0 100.0
11/30/2021 00:00 571.68 0.00 0.00 24.5 100.0
11/29/2021 23:00 571.68 0.00 -- 25.9 100.0
11/29/2021 22:00 571.67 0.00 -- 27.4 100.0
11/29/2021 21:00 571.68 0.00 -- 28.0 100.0
11/29/2021 20:00 571.66 0.00 -- 28.8 100.0
11/29/2021 19:00 571.68 0.00 -- 28.3 100.0
11/29/2021 18:00 571.68 0.00 -- 30.3 100.0
11/29/2021 17:00 571.68 0.00 -- 33.6 100.0
11/29/2021 16:00 571.68 0.00 -- 35.1 100.0
11/29/2021 15:00 571.68 0.00 -- 35.5 100.0
11/29/2021 14:00 571.69 0.00 -- 34.5 100.0
11/29/2021 13:00 571.69 0.00 -- 33.0 100.0
11/29/2021 12:00 571.70 0.00 -- 31.6 100.0
11/29/2021 11:00 571.67 0.00 -- 30.2 100.0
11/29/2021 10:00 571.69 0.00 -- 29.0 100.0
11/29/2021 09:00 571.68 0.00 -- 28.3 100.0
11/29/2021 08:00 571.69 0.00 -- 28.3 100.0
11/29/2021 07:00 571.69 0.00 -- 26.8 100.0
11/29/2021 06:00 571.69 0.00 -- 27.8 100.0
11/29/2021 05:00 571.69 0.00 -- 29.0 100.0
11/29/2021 04:00 571.69 0.00 -- 29.5 100.0
11/29/2021 03:00 571.71 0.00 -- 29.7 100.0
11/29/2021 02:00 571.71 0.00 -- 28.8 100.0
11/29/2021 01:00 571.71 0.00 -- 29.0 100.0
11/29/2021 00:00 571.70 0.00 0.00 29.3 100.0
11/28/2021 23:00 571.71 0.00 -- 29.6 100.0
11/28/2021 22:00 571.71 0.00 -- 29.9 100.0
11/28/2021 21:00 571.69 0.00 -- 29.4 100.0
11/28/2021 20:00 571.72 0.00 -- 29.4 100.0
11/28/2021 19:00 571.71 0.00 -- 29.5 100.0
11/28/2021 18:00 571.71 0.00 -- 29.4 100.0
11/28/2021 17:00 571.72 0.00 -- 30.8 100.0
11/28/2021 16:00 571.72 0.00 -- 31.0 100.0
11/28/2021 15:00 571.74 0.00 -- 31.0 100.0
11/28/2021 14:00 571.72 0.00 -- 30.7 100.0
11/28/2021 13:00 571.71 0.00 -- 30.1 100.0
11/28/2021 12:00 571.72 0.00 -- 29.5 100.0
11/28/2021 11:00 571.72 0.00 -- 28.5 100.0
11/28/2021 10:00 571.71 0.00 -- 27.0 100.0
11/28/2021 09:00 571.72 0.00 -- 25.5 100.0
11/28/2021 08:00 571.74 0.00 -- 25.1 100.0
11/28/2021 07:00 571.72 0.00 -- 25.5 100.0
11/28/2021 06:00 571.73 0.00 -- 25.1 100.0
11/28/2021 05:00 571.72 0.00 -- 25.0 100.0
11/28/2021 04:00 571.73 0.00 -- 25.4 100.0
11/28/2021 03:00 571.74 0.00 -- 25.5 100.0
11/28/2021 02:00 571.75 0.00 -- 26.1 100.0
11/28/2021 01:00 571.76 0.00 -- 27.5 100.0
11/28/2021 00:00 571.75 0.00 0.00 27.9 100.0
11/27/2021 23:00 571.74 0.00 -- 28.2 100.0
11/27/2021 22:00 571.77 0.00 -- 28.3 100.0
11/27/2021 21:00 571.75 0.00 -- 28.2 100.0
11/27/2021 20:00 571.79 0.00 -- 28.9 100.0
11/27/2021 19:00 571.70 0.00 -- 29.6 100.0
11/27/2021 18:00 571.77 0.00 -- 30.4 100.0
11/27/2021 17:00 571.73 0.00 -- 29.9 100.0
11/27/2021 16:00 571.77 0.00 -- 30.3 100.0
11/27/2021 15:00 571.70 0.00 -- 29.9 100.0
11/27/2021 14:00 571.80 0.00 -- 29.7 100.0
11/27/2021 13:00 571.78 0.00 -- 29.6 100.0
11/27/2021 12:00 571.72 0.00 -- 29.6 100.0
11/27/2021 11:00 571.86 0.00 -- 29.6 100.0
11/27/2021 10:00 571.74 0.00 -- 29.2 100.0
11/27/2021 09:00 571.76 0.00 -- 29.1 100.0
11/27/2021 08:00 571.76 0.00 -- 29.8 100.0
11/27/2021 07:00 571.75 0.00 -- 30.7 100.0
11/27/2021 06:00 571.76 0.00 -- 31.8 100.0
11/27/2021 05:00 571.81 0.00 -- 32.3 100.0
11/27/2021 04:00 571.80 0.00 -- 34.0 100.0
11/27/2021 03:00 571.79 0.00 -- 34.8 100.0
11/27/2021 02:00 571.80 0.00 -- 34.5 100.0
11/27/2021 01:00 571.78 0.00 -- 34.1 100.0
11/27/2021 00:00 571.77 0.00 0.00 34.0 100.0
11/26/2021 23:00 571.78 0.01 -- 33.8 100.0
11/26/2021 22:00 571.78 0.05 -- 34.6 100.0
11/26/2021 21:00 571.77 0.06 -- 33.7 100.0
11/26/2021 20:00 571.75 0.01 -- 35.8 100.0
11/26/2021 19:00 571.78 0.00 -- 35.9 100.0
11/26/2021 18:00 571.75 0.00 -- 36.2 100.0
11/26/2021 17:00 571.77 0.00 -- 36.3 100.0
11/26/2021 16:00 571.77 0.01 -- 37.6 100.0
11/26/2021 15:00 571.77 0.01 -- 38.1 100.0
11/26/2021 14:00 571.76 0.01 -- 38.0 100.0
11/26/2021 13:00 571.78 0.00 -- 39.3 100.0
11/26/2021 12:00 571.78 0.00 -- 40.5 100.0
11/26/2021 11:00 571.75 0.00 -- 40.5 100.0
11/26/2021 10:00 571.76 0.00 -- 40.4 100.0
11/26/2021 09:00 571.76 0.00 -- 40.4 100.0
11/26/2021 08:00 571.76 0.00 -- 39.3 100.0
11/26/2021 07:00 571.77 0.00 -- 39.8 100.0
11/26/2021 06:00 571.80 0.00 -- 39.3 100.0
11/26/2021 05:00 571.78 0.00 -- 40.3 100.0
11/26/2021 04:00 571.77 0.00 -- 39.0 100.0
11/26/2021 03:00 571.77 0.00 -- 42.0 100.0
11/26/2021 02:00 571.77 0.00 -- 41.8 100.0
11/26/2021 01:00 571.77 0.00 -- 41.6 100.0
11/26/2021 00:00 571.80 0.00 0.16 41.7 100.0
11/25/2021 23:00 571.79 0.00 -- 40.0 100.0
11/25/2021 22:00 571.77 0.00 -- 37.8 100.0
11/25/2021 21:00 571.75 0.00 -- 41.0 100.0
11/25/2021 20:00 571.78 0.00 -- 38.5 100.0
11/25/2021 19:00 571.80 0.00 -- 38.7 100.0
11/25/2021 18:00 571.80 0.00 -- 42.5 100.0
11/25/2021 17:00 571.79 0.00 -- 45.3 100.0
11/25/2021 16:00 571.79 0.00 -- 48.5 100.0
11/25/2021 15:00 571.77 0.00 -- 48.3 100.0
11/25/2021 14:00 571.80 0.00 -- 48.5 100.0
11/25/2021 13:00 571.79 0.00 -- 46.4 100.0
11/25/2021 12:00 571.79 0.00 -- 44.5 100.0
11/25/2021 11:00 571.82 0.00 -- 41.9 100.0
11/25/2021 10:00 571.80 0.00 -- 39.3 100.0
11/25/2021 09:00 571.82 0.00 -- 28.0 100.0
11/25/2021 08:00 571.81 0.00 -- 26.9 100.0
11/25/2021 07:00 571.81 0.00 -- 27.0 100.0
11/25/2021 06:00 571.81 0.00 -- 27.9 100.0
11/25/2021 05:00 571.81 0.00 -- 27.7 100.0
11/25/2021 04:00 571.79 0.00 -- 27.7 100.0
11/25/2021 03:00 571.79 0.00 -- 28.4 100.0
11/25/2021 02:00 571.79 0.00 -- 27.7 100.0
11/25/2021 01:00 571.78 0.00 -- 27.4 100.0
11/25/2021 00:00 571.81 0.00 0.00 27.9 100.0
11/24/2021 23:00 571.81 0.00 -- 28.8 100.0
11/24/2021 22:00 571.81 0.00 -- 31.8 100.0
11/24/2021 21:00 571.81 0.00 -- 29.9 100.0
11/24/2021 20:00 571.80 0.00 -- 29.8 100.0
11/24/2021 19:00 571.81 0.00 -- 29.9 100.0
11/24/2021 18:00 571.81 0.00 -- 33.0 100.0
11/24/2021 17:00 571.81 0.00 -- 35.1 100.0
11/24/2021 16:00 571.84 0.00 -- 38.3 100.0
11/24/2021 15:00 571.85 0.00 -- 38.3 100.0
11/24/2021 14:00 571.85 0.00 -- 36.9 100.0
11/24/2021 13:00 571.83 0.00 -- 35.7 100.0
11/24/2021 12:00 571.84 0.00 -- 33.8 100.0
11/24/2021 11:00 571.82 0.00 -- 31.6 100.0
11/24/2021 10:00 571.81 0.00 -- 30.0 100.0
11/24/2021 09:00 571.83 0.00 -- 27.8 100.0
11/24/2021 08:00 571.82 0.00 -- 26.3 100.0
11/24/2021 07:00 571.84 0.00 -- 26.1 100.0
11/24/2021 06:00 571.85 0.00 -- 25.9 100.0
11/24/2021 05:00 571.84 0.00 -- 25.2 100.0
11/24/2021 04:00 571.83 0.00 -- 25.8 100.0
11/24/2021 03:00 571.84 0.00 -- 25.3 100.0
11/24/2021 02:00 571.84 0.00 -- 25.3 100.0
11/24/2021 01:00 571.86 0.00 -- 25.3 100.0
11/24/2021 00:00 571.87 0.00 0.00 25.2 100.0
11/23/2021 23:00 -- -- -- -- --
11/23/2021 22:00 -- -- -- -- --
11/23/2021 21:00 -- -- -- -- --
11/23/2021 20:00 -- -- -- -- --
11/23/2021 19:00 -- -- -- -- --
11/23/2021 18:00 -- -- -- -- --
11/23/2021 17:00 -- -- -- -- --
11/23/2021 16:00 -- -- -- -- --
11/23/2021 15:00 -- -- -- -- --
11/23/2021 14:00 -- -- -- -- --
11/23/2021 13:00 -- -- -- -- --
11/23/2021 12:00 -- -- -- -- --
11/23/2021 11:00 -- -- -- -- --
11/23/2021 10:00 -- -- -- -- --
11/23/2021 09:00 -- -- -- -- --
11/23/2021 08:00 -- -- -- -- --
11/23/2021 07:00 -- -- -- -- --
11/23/2021 06:00 -- -- -- -- --
11/23/2021 05:00 -- -- -- -- --
11/23/2021 04:00 -- -- -- -- --
11/23/2021 03:00 -- -- -- -- --
11/23/2021 02:00 -- -- -- -- --
11/23/2021 01:00 -- -- -- -- --
11/23/2021 00:00 -- -- -- -- --